ECMWFNIL_sfc_dewp_000.txt.gz
Dewpoint
54 53 54 54 54 53 53 54 55 54 54 55 54 54 53 56 55 55 55 55 55 54 53 53 53 53 54 54 54 54 53 54 55 55 55 57 57 58 60 61 61 61
53 53 52 52 52 53 54 55 55 54 54 55 54 54 54 55 54 54 54 54 54 53 52 52 52 51 52 52 53 54 53 54 53 54 55 55 55 56 57 59 61 62
52 52 52 52 52 53 53 54 55 55 55 54 55 55 54 53 54 54 54 54 53 52 52 51 50 50 50 50 51 52 52 53 54 54 54 54 55 55 55 57 58 61
52 52 51 52 53 53 53 54 54 54 54 53 54 54 54 54 54 53 53 51 52 50 50 50 50 49 48 48 50 50 50 51 51 53 53 54 54 54 55 55 56 58
51 51 50 51 52 53 52 51 52 52 53 53 53 53 52 52 53 52 52 52 52 50 49 48 48 48 48 47 48 49 49 49 50 51 52 52 53 53 54 55 55 55
51 49 48 49 50 51 50 50 50 51 52 52 52 52 52 52 51 50 48 48 48 48 47 47 46 46 46 46 47 47 48 48 48 49 49 50 51 52 52 53 53 54
50 50 49 49 50 50 50 50 51 51 52 52 52 51 51 50 48 46 44 45 44 45 44 45 45 45 46 46 45 45 46 47 46 47 47 47 49 50 51 51 52 52
51 50 50 49 50 50 50 49 50 51 52 51 50 50 50 47 44 46 45 44 43 43 43 43 44 43 44 44 44 44 45 46 46 45 45 46 48 48 49 50 51 51
50 49 49 50 50 50 49 48 50 50 49 50 49 48 48 47 46 45 44 43 42 43 42 42 42 42 44 44 44 44 43 44 46 45 45 45 46 46 47 48 49 50
49 49 50 49 49 49 49 49 49 50 49 49 47 49 46 47 46 43 43 43 43 42 41 41 42 42 43 43 43 43 43 43 43 44 44 44 44 45 45 46 47 49
50 49 49 49 49 49 50 49 49 49 50 46 48 47 46 47 45 44 43 42 43 40 40 41 42 42 43 43 44 44 44 43 43 43 43 43 44 44 46 45 46 47
50 49 49 49 49 49 49 49 49 49 48 49 46 45 45 45 45 43 42 40 39 40 41 41 42 42 42 42 42 43 43 44 43 43 43 43 43 44 44 45 45 46
48 48 48 48 49 49 49 48 47 48 46 44 46 45 45 45 43 41 41 41 40 40 41 41 41 42 42 42 42 42 43 43 43 42 42 43 43 43 43 44 45 45
48 49 48 48 49 49 48 49 48 49 48 48 47 47 45 42 41 41 40 40 41 41 41 41 41 41 41 41 41 41 41 42 42 42 42 42 43 43 43 43 44 45
48 47 48 48 47 47 48 47 46 48 48 47 47 45 44 42 41 40 40 40 40 41 41 41 42 42 41 41 41 41 41 41 41 41 42 42 42 42 43 43 43 44
45 47 46 47 47 47 46 46 45 47 47 46 44 43 42 41 40 40 40 40 40 40 40 42 42 42 42 41 41 42 41 40 41 41 41 41 42 42 43 43 43 44
43 44 45 45 45 45 47 44 44 46 47 46 44 43 42 41 41 39 39 40 39 39 39 41 41 41 40 38 38 39 41 41 40 40 40 40 40 40 40 41 43 43
43 44 44 44 44 42 43 44 46 45 44 43 42 41 42 43 41 40 39 39 40 39 39 39 40 40 38 38 38 38 39 41 40 40 40 40 39 39 39 40 40 41
42 42 42 43 43 43 46 47 44 44 42 41 41 42 44 41 40 40 39 39 39 38 38 38 38 38 37 37 37 37 37 39 39 40 39 39 39 39 39 39 39 40
41 40 41 43 45 46 46 43 43 42 43 43 42 43 44 41 40 40 39 39 38 38 37 37 37 38 37 37 37 36 36 37 38 38 38 38 38 38 39 38 39 39
39 39 41 43 43 43 44 42 43 44 41 41 43 42 42 41 39 39 39 39 39 38 37 37 38 37 36 36 36 36 36 36 37 38 38 38 38 38 38 38 38 39
40 43 45 44 42 42 41 41 42 42 41 43 42 42 42 42 40 39 39 38 37 36 36 36 36 36 35 36 36 36 36 37 37 38 37 37 37 37 37 37 37 38
40 42 44 44 42 41 40 42 42 41 41 42 41 41 41 39 38 38 37 36 36 36 36 35 35 35 35 35 35 35 36 36 37 37 36 36 36 36 36 36 37 37
39 38 39 41 41 39 42 43 43 42 39 41 40 38 38 37 37 36 36 36 35 35 35 35 34 35 35 35 35 35 36 35 37 37 36 36 36 36 37 36 37 40
41 42 43 43 43 43 43 42 42 41 40 41 40 39 38 36 35 35 35 35 34 34 37 35 33 34 34 34 35 35 36 36 36 36 36 36 36 36 36 37 37 38
44 43 44 44 42 42 42 42 41 40 40 39 41 36 34 35 35 34 34 34 34 33 33 33 32 32 33 34 34 34 35 35 36 35 35 35 35 35 36 36 36 36

ECMWFNIL_sfc_dewp_003.txt.gz
Dewpoint
52 52 49 50 50 50 48 49 49 50 47 49 49 49 48 50 52 50 51 50 50 50 50 50 51 51 52 51 52 52 53 53 54 54 53 53 53 54 55 57 60 61
51 51 52 51 50 51 49 49 49 49 49 49 49 49 49 50 51 51 51 50 51 50 51 50 50 50 49 49 49 50 50 51 51 53 53 53 53 53 54 54 55 58
50 50 50 49 48 49 49 50 49 49 49 49 49 49 50 50 50 50 51 50 49 49 49 49 48 48 49 49 49 49 49 49 49 50 50 51 53 53 53 54 54 55
49 49 49 48 48 48 49 48 49 49 49 48 48 49 49 51 50 49 49 52 49 49 49 49 49 48 48 48 48 48 48 49 49 49 49 49 50 51 52 52 53 53
48 48 48 48 49 49 49 48 48 49 48 48 49 49 49 47 47 48 48 48 48 47 47 46 47 47 47 47 47 46 47 47 48 49 48 48 48 49 50 51 52 52
48 48 48 47 48 49 48 48 49 49 49 48 48 48 47 47 47 46 47 45 46 46 46 46 46 46 46 45 45 45 46 46 46 47 47 47 47 47 47 49 49 49
48 48 47 48 48 48 48 48 48 49 48 47 48 46 47 46 46 45 45 45 44 45 44 44 44 44 45 45 45 45 45 45 45 45 45 45 46 46 46 47 47 48
48 47 47 47 47 48 47 48 48 47 48 47 45 47 46 46 45 45 46 45 44 44 44 44 44 44 44 44 45 44 44 46 46 45 44 44 45 44 45 46 46 46
48 47 47 47 47 47 47 48 48 47 48 46 46 46 47 46 45 45 45 45 44 44 44 44 44 44 44 44 44 44 44 44 45 44 44 44 44 44 44 44 44 45
48 48 47 47 47 47 47 47 48 47 48 47 47 46 46 46 46 46 45 43 43 43 43 43 43 43 43 44 44 44 44 44 44 44 44 44 44 44 44 44 44 44
48 48 47 47 47 47 47 47 47 47 47 46 46 46 46 45 46 45 43 43 43 43 42 41 42 43 43 43 44 44 44 44 44 44 44 44 44 44 45 44 44 44
48 47 47 47 47 47 47 47 47 47 47 47 46 46 45 45 44 43 43 42 41 41 41 41 41 42 42 43 43 43 43 43 43 43 44 44 44 44 44 44 44 44
47 47 47 47 47 47 47 47 47 47 46 46 46 45 44 43 43 41 42 41 41 41 41 41 41 42 42 42 42 42 42 42 42 43 43 43 43 43 43 43 43 43
47 47 47 47 47 47 47 47 47 46 46 45 45 44 43 42 41 41 41 42 42 42 42 43 42 42 42 42 42 42 42 42 42 42 42 42 42 43 43 43 43 43
48 47 47 47 47 47 46 46 45 45 45 44 44 43 44 42 42 41 40 40 41 41 41 42 42 42 42 42 41 41 41 41 41 41 42 42 42 42 43 43 43 43
47 47 46 46 46 46 45 45 44 44 44 43 42 42 41 42 41 41 40 40 40 40 40 41 42 42 43 42 41 42 41 41 41 41 40 40 40 40 40 40 40 41
46 46 45 45 45 44 44 44 44 44 43 43 42 41 41 41 41 40 40 40 40 39 39 40 41 41 40 38 38 38 39 39 39 39 39 39 39 39 39 40 40 40
45 45 44 44 44 43 43 43 43 43 42 42 41 41 41 40 40 40 39 39 39 39 38 39 39 40 38 38 38 37 38 39 37 37 38 37 37 38 38 39 39 40
44 44 44 43 43 43 43 42 42 41 41 40 40 40 40 39 39 39 38 38 38 38 38 39 39 39 37 37 37 37 37 37 36 36 36 36 36 37 37 37 37 38
43 43 42 42 41 41 41 41 41 40 40 40 40 39 38 38 38 37 38 38 38 38 39 39 38 39 37 37 37 37 36 36 36 36 36 35 36 36 36 36 36 36
42 41 40 40 40 40 40 39 39 39 39 39 38 38 37 36 36 36 36 38 38 39 38 38 38 38 37 36 36 36 36 36 36 36 35 35 35 35 36 36 36 37
40 39 39 40 40 40 40 39 38 39 38 38 37 37 37 37 36 37 36 36 37 37 37 36 37 36 36 36 36 36 36 36 35 34 34 34 34 34 35 35 36 36
39 39 39 39 39 39 39 38 38 38 37 37 37 35 35 35 35 35 36 36 36 36 36 35 35 36 35 35 35 35 35 34 33 33 33 33 33 34 34 35 35 36
38 38 38 39 39 39 38 38 37 36 35 36 36 34 34 35 35 34 34 35 35 35 35 35 35 35 35 35 35 34 35 33 33 33 32 32 32 32 33 33 34 38
37 38 39 38 38 38 38 36 35 33 36 36 35 34 34 34 35 33 33 34 35 35 38 36 34 34 35 34 34 34 34 33 33 32 31 31 31 31 32 33 33 36
37 37 37 38 37 37 36 35 35 34 36 35 34 33 32 33 33 33 33 34 34 34 34 34 33 33 34 34 34 34 35 34 33 32 31 31 31 31 32 32 33 34

ECMWFNIL_sfc_dewp_006.txt.gz
Dewpoint
49 48 48 47 46 46 48 46 47 47 48 47 48 48 49 49 51 49 49 49 48 48 48 48 49 48 49 48 47 48 49 49 50 50 50 50 50 51 51 52 53 54
49 49 49 47 48 49 48 47 47 47 48 47 47 48 48 49 49 49 49 49 50 48 49 49 49 48 47 47 47 48 48 48 48 51 49 49 49 49 49 50 51 52
49 50 49 48 48 49 48 48 47 47 47 47 47 48 49 50 49 48 49 48 48 48 48 48 47 48 48 48 48 47 47 47 47 48 49 48 49 49 49 49 49 50
50 50 49 48 48 49 47 48 48 48 48 48 47 49 49 50 49 48 49 52 48 47 47 47 48 47 48 47 47 46 46 46 47 47 47 47 48 48 47 48 48 48
49 49 49 48 47 49 48 47 47 47 48 47 48 49 50 48 48 48 48 48 47 47 46 46 46 46 46 46 45 44 45 46 46 46 45 45 46 47 47 47 47 46
49 49 49 48 47 48 47 47 47 47 47 47 48 49 46 46 46 47 47 46 45 45 45 45 45 45 45 44 44 44 44 45 45 45 45 45 45 46 46 46 45 45
48 48 48 48 48 47 47 47 47 47 47 47 47 46 46 46 46 46 45 45 45 46 44 43 44 44 44 44 43 44 44 44 44 44 44 45 45 44 44 44 45 44
48 47 47 47 47 47 46 47 47 47 47 47 45 46 46 46 45 44 44 44 43 43 44 43 43 44 43 43 43 43 43 45 44 44 44 44 44 44 44 45 45 44
47 47 46 46 46 47 46 47 47 47 47 45 45 45 45 45 45 44 44 44 43 43 43 43 43 43 43 43 43 43 42 43 44 43 43 44 44 44 44 44 44 44
47 47 46 46 46 47 46 47 47 47 47 45 45 45 45 45 44 44 44 43 43 43 42 42 42 42 42 42 42 42 42 43 43 43 43 44 44 44 44 44 44 44
47 46 46 45 45 46 46 47 46 46 47 45 45 45 45 44 46 44 43 42 43 42 41 41 41 41 41 42 42 42 42 42 42 42 43 43 43 44 44 44 44 44
47 46 46 45 46 46 46 46 46 46 46 46 46 45 44 44 44 43 44 42 41 41 40 40 40 41 40 41 41 42 42 42 42 42 42 43 43 43 43 43 43 43
47 46 46 46 46 46 46 46 46 46 46 46 46 45 44 43 42 42 43 41 41 41 40 40 41 41 40 40 41 41 41 42 42 42 42 42 43 43 43 43 43 43
47 47 46 46 46 46 46 46 46 46 45 45 46 44 43 42 41 40 41 41 41 41 41 42 41 41 40 40 41 41 41 41 42 42 42 42 42 42 42 42 43 43
47 47 47 47 46 46 46 46 46 45 45 44 44 43 43 41 41 41 40 39 40 40 40 41 41 40 41 40 40 40 40 40 40 40 40 39 39 39 39 40 40 41
48 47 47 47 46 46 46 46 45 45 44 43 42 42 42 42 41 40 39 39 39 39 39 40 40 41 43 42 41 40 39 39 39 38 38 38 38 38 38 38 38 39
47 46 46 46 46 46 45 44 44 44 42 41 41 41 41 41 39 39 39 39 39 38 38 39 40 40 40 38 38 39 39 38 38 37 37 37 37 37 36 37 37 37
49 48 47 46 46 45 44 43 43 42 41 40 40 39 40 40 38 38 38 38 38 38 37 38 38 40 38 38 38 38 38 39 38 37 37 37 37 36 36 36 36 36
48 47 47 46 44 43 43 42 42 41 40 39 39 39 39 38 37 37 37 37 37 37 37 38 38 39 38 38 38 37 37 38 37 37 37 37 36 36 36 35 35 36
48 47 46 44 43 42 42 42 41 40 39 39 39 38 37 37 36 36 37 36 36 37 37 37 38 39 38 38 38 37 37 37 37 37 36 36 36 35 35 35 34 34
47 46 45 44 43 42 41 40 40 38 38 37 37 36 36 35 35 35 35 38 36 36 36 36 38 38 37 37 36 36 36 36 36 36 35 35 35 34 34 34 34 35
46 45 45 42 42 40 40 39 39 39 38 37 36 35 35 35 35 35 35 34 35 34 34 34 35 36 36 36 36 35 36 36 35 34 33 33 33 33 33 33 34 34
45 44 43 40 40 39 39 39 38 37 37 37 36 35 34 33 33 33 34 34 34 34 32 33 34 35 35 35 35 35 35 34 33 33 32 32 32 32 32 32 33 33
43 42 40 40 40 39 38 38 37 36 36 37 35 34 34 34 34 33 33 33 33 32 33 33 33 34 35 35 35 35 35 33 33 32 31 31 31 32 32 32 32 35
42 40 39 39 38 38 37 36 35 35 36 35 35 34 34 33 36 31 31 31 31 32 38 35 32 33 35 34 35 35 35 33 33 32 31 31 31 31 31 32 31 33
42 40 39 38 37 36 34 34 35 36 35 34 34 33 33 32 33 31 30 30 31 31 32 32 32 32 34 34 35 35 35 34 33 32 32 31 31 31 31 31 31 31

ECMWFNIL_sfc_dewp_009.txt.gz
Dewpoint
48 49 46 46 45 47 46 47 48 47 48 47 48 49 49 49 50 48 48 47 47 47 47 47 47 46 47 46 46 47 49 48 48 48 47 48 47 47 48 48 48 49
47 49 49 47 46 48 47 46 48 47 47 47 48 48 47 48 48 48 47 48 48 47 47 47 47 47 46 46 46 46 46 45 45 49 46 46 46 46 46 46 47 48
47 47 48 47 46 46 47 46 48 47 47 47 47 47 48 48 48 47 47 47 46 47 46 46 46 47 46 46 45 45 45 44 44 45 47 45 46 45 45 46 46 46
48 47 47 46 46 46 47 46 47 47 46 46 46 48 49 49 48 47 47 51 46 46 45 46 46 45 45 45 44 44 44 44 44 44 44 44 45 45 45 46 46 45
47 48 47 47 47 47 47 47 46 47 47 47 46 48 50 48 47 47 47 46 45 45 45 45 44 44 46 44 44 43 44 44 44 44 44 43 44 44 45 45 44 43
48 48 48 47 47 47 47 47 46 47 47 46 47 49 48 48 47 47 47 45 45 45 44 44 44 44 44 43 43 43 43 44 44 44 44 43 44 44 45 44 44 43
48 49 48 48 47 48 47 47 47 47 47 47 48 47 47 46 46 45 45 45 44 45 43 43 43 42 42 43 42 42 42 42 43 43 43 43 45 44 44 44 44 44
48 48 48 48 47 47 47 46 46 47 47 48 46 46 46 46 45 44 44 44 43 43 42 43 43 42 42 41 42 42 41 43 43 42 42 43 43 43 43 44 44 44
48 48 48 47 47 47 46 46 46 46 47 46 46 45 45 45 45 45 44 43 42 42 42 42 42 42 42 42 42 42 41 41 43 42 42 42 42 42 43 43 43 44
47 48 47 47 47 46 46 46 46 46 47 46 45 45 45 45 45 44 44 43 43 42 41 41 41 42 42 41 41 41 41 41 41 41 41 42 42 42 42 43 43 43
46 46 47 46 46 46 46 46 46 46 46 45 45 45 44 45 45 43 43 42 42 42 41 40 41 41 40 40 40 41 41 41 41 41 41 41 42 42 44 44 43 43
47 46 46 45 46 46 46 46 46 46 45 45 45 44 43 44 44 43 43 42 42 41 41 40 40 40 40 40 40 40 40 40 41 41 41 41 42 42 42 43 43 43
48 48 48 45 46 46 46 46 46 45 45 45 45 44 44 43 42 43 42 41 41 41 40 40 40 40 39 39 39 39 40 40 40 40 41 41 41 42 42 43 43 43
49 49 47 46 46 46 46 46 46 45 45 45 45 44 43 43 42 41 42 41 41 41 41 41 39 39 39 39 39 39 40 40 40 41 41 40 41 41 41 41 41 41
49 48 47 47 47 46 46 46 45 45 45 45 44 44 44 42 41 41 41 40 40 40 40 41 40 39 39 39 39 39 39 40 40 39 39 39 38 38 38 39 39 39
49 48 47 48 47 46 46 46 45 45 45 44 43 43 42 41 41 40 40 39 39 38 38 40 39 40 43 42 42 41 40 39 39 39 38 38 38 38 37 38 38 38
48 48 47 47 47 47 47 46 45 45 44 44 42 41 41 41 40 39 38 39 39 38 37 38 39 39 40 38 38 39 39 39 38 38 38 38 38 37 37 37 37 37
48 48 47 47 47 46 46 46 46 46 44 42 41 40 41 41 39 38 39 38 38 37 36 38 38 40 38 38 38 38 39 40 38 37 37 37 37 37 37 37 36 36
48 47 47 46 46 46 46 46 45 44 44 42 41 41 41 39 38 38 38 37 37 36 36 38 37 39 38 38 38 37 37 38 36 36 36 36 36 36 36 36 36 36
47 47 46 46 46 46 46 45 44 43 43 42 41 40 39 38 37 37 37 37 36 36 36 36 36 38 37 37 37 36 36 36 36 35 35 35 35 35 35 34 34 34
47 46 46 46 46 45 45 44 43 41 41 41 40 38 37 37 37 36 36 37 37 35 34 34 35 37 36 36 36 36 35 36 35 35 35 35 34 34 34 34 34 34
45 44 44 43 45 44 43 42 41 40 40 39 38 37 37 37 36 36 37 36 36 33 34 33 33 35 35 35 35 35 35 35 35 34 33 33 33 33 33 33 33 33
45 43 43 43 42 42 41 40 40 39 38 38 37 36 36 36 36 36 36 35 34 33 32 31 31 34 34 34 34 34 35 34 34 33 33 32 32 32 32 32 32 32
44 44 44 44 44 42 41 40 40 38 37 37 36 36 35 35 35 35 35 35 34 33 32 30 30 33 35 34 34 34 35 34 33 33 32 32 32 32 32 32 32 35
45 45 44 44 43 42 41 40 38 37 37 36 36 35 35 34 36 34 33 33 33 33 37 35 31 32 34 34 34 34 35 33 33 32 32 31 32 31 32 32 32 33
45 44 43 42 40 39 38 37 37 36 36 35 35 34 34 33 35 33 32 33 33 35 34 32 29 29 32 34 34 34 35 34 33 32 32 31 31 31 32 31 32 31

ECMWFNIL_sfc_dewp_012.txt.gz
Dewpoint
48 48 47 46 46 46 47 47 47 47 48 48 49 49 50 50 51 50 49 48 48 48 48 48 48 48 48 47 48 48 48 48 49 48 48 49 48 48 48 48 49 50
48 49 48 47 46 47 47 47 47 47 48 48 49 49 49 50 50 49 49 49 50 48 48 48 48 47 47 47 47 46 46 46 46 50 47 47 47 47 47 48 48 49
48 49 48 46 45 46 46 47 48 47 48 48 48 49 49 50 50 48 48 48 48 48 47 47 47 47 46 46 46 45 45 45 46 47 48 46 47 46 47 47 47 47
48 48 48 47 45 45 46 46 47 47 47 47 48 49 49 50 49 48 49 52 48 47 47 47 47 46 46 45 45 45 45 45 45 46 45 46 47 47 46 47 47 45
47 48 48 48 47 46 47 46 46 47 47 47 47 48 50 49 48 48 49 47 47 47 46 46 45 46 46 45 44 44 46 45 45 45 45 45 45 47 46 46 45 45
48 48 48 48 48 46 46 46 46 47 47 46 47 49 49 49 48 48 48 47 47 46 45 45 45 45 44 44 44 44 44 44 44 44 44 44 45 45 45 45 45 45
48 48 48 47 47 47 46 46 46 47 47 47 48 48 48 48 48 48 47 47 46 46 45 44 43 43 44 44 44 43 44 44 44 44 43 43 45 44 44 44 45 44
49 48 48 47 47 47 47 46 46 47 47 47 47 47 47 47 47 47 46 45 45 44 43 43 43 43 43 43 43 43 43 44 44 43 43 42 43 42 43 43 44 43
48 48 48 48 47 47 47 46 46 47 47 47 47 47 47 47 46 46 45 44 44 43 43 43 43 43 43 43 43 43 42 42 43 42 42 43 42 42 42 43 43 44
48 49 48 48 47 47 47 46 47 47 48 47 46 46 46 46 45 45 44 44 44 43 43 43 43 43 43 42 42 42 42 41 41 42 42 42 42 42 42 42 43 43
48 49 49 48 47 47 47 46 46 47 47 46 46 46 45 45 45 44 43 43 43 42 42 42 42 42 42 42 42 42 42 42 41 41 42 42 42 42 44 44 43 43
48 49 49 48 47 47 46 46 46 46 47 46 46 45 45 45 44 44 44 43 43 42 41 41 41 41 41 41 41 42 42 42 42 42 42 42 42 42 42 42 43 42
48 48 49 49 49 48 48 47 46 46 46 45 46 45 44 44 44 44 44 43 42 41 41 41 41 41 41 41 40 41 41 41 41 41 41 41 41 41 42 42 42 42
49 48 48 48 48 48 48 47 47 46 46 46 46 44 44 44 43 43 43 42 41 41 41 42 41 40 40 40 41 41 42 41 41 41 41 41 41 40 41 41 41 41
50 49 48 48 48 47 48 47 47 46 45 45 45 44 44 44 43 42 41 41 41 41 41 41 41 41 41 41 40 40 40 40 40 40 40 40 39 39 39 39 40 40
50 49 48 47 47 47 47 47 46 45 45 45 44 44 44 43 42 42 41 40 40 40 41 41 40 41 45 42 42 42 40 40 40 40 39 39 39 39 39 39 39 39
49 49 48 47 47 47 47 47 46 45 45 45 44 44 43 43 41 41 40 40 40 40 40 40 40 41 41 38 38 39 40 39 39 38 38 38 38 38 37 38 38 38
49 49 48 47 47 47 46 45 45 45 45 43 44 43 43 42 41 40 40 40 40 39 39 39 39 41 38 38 38 38 39 40 39 38 38 37 37 37 37 37 37 37
49 48 48 47 47 46 46 46 46 45 45 44 44 43 42 41 40 39 39 39 39 38 38 40 39 40 38 38 38 37 37 38 37 37 36 36 36 36 36 36 35 36
48 48 47 47 46 46 46 46 45 45 44 44 43 42 41 40 40 40 39 38 38 38 38 38 38 39 38 38 37 36 35 36 36 35 35 35 35 35 35 35 35 35
47 47 47 46 46 46 46 46 45 44 44 43 42 42 41 40 39 38 37 38 38 37 37 37 37 38 37 37 36 35 35 35 36 35 35 35 35 35 35 35 34 35
47 46 46 46 46 46 46 45 44 44 43 42 41 40 39 39 38 38 38 38 38 36 36 35 35 37 36 36 35 34 35 36 35 34 34 34 34 34 34 34 34 34
46 46 46 46 46 45 45 44 44 43 42 42 40 39 39 38 37 37 38 37 36 36 34 33 33 35 35 35 34 34 35 34 33 33 34 33 33 33 33 33 34 33
46 46 46 45 45 45 45 44 43 42 41 41 40 38 37 37 37 37 36 37 36 35 33 32 32 33 35 35 35 35 35 34 33 33 32 32 32 33 33 33 33 36
45 45 45 45 45 45 44 42 41 41 40 40 40 39 39 38 38 37 35 34 35 34 38 33 31 32 35 35 35 35 35 34 33 32 32 31 31 30 32 33 32 34
45 45 45 45 44 43 42 42 41 41 40 41 40 40 39 37 37 35 34 34 34 35 36 36 32 31 35 34 35 35 35 35 33 32 31 29 30 30 31 31 32 32

ECMWFNIL_sfc_dewp_015.txt.gz
Dewpoint
55 55 55 54 53 53 55 54 54 55 55 55 54 55 55 56 55 55 54 54 54 53 53 52 52 51 50 49 49 46 47 49 48 48 48 48 48 48 47 47 48 47
55 55 54 54 53 53 53 55 55 54 55 56 55 55 56 56 57 55 54 54 53 53 52 52 51 49 48 47 48 47 47 48 48 48 49 48 48 48 48 48 47 47
54 54 54 54 53 54 54 55 55 55 54 56 57 57 56 57 56 55 54 54 53 53 52 51 50 48 48 48 48 47 47 47 48 47 47 47 47 46 47 47 46 47
53 54 54 54 54 54 54 53 54 54 54 55 55 56 56 57 56 55 55 54 53 52 52 51 50 49 47 48 48 46 47 47 46 47 46 46 46 45 46 46 45 45
54 53 53 54 53 53 54 53 53 53 53 53 56 56 55 56 56 54 54 53 53 51 51 50 50 49 49 48 47 47 47 46 46 45 44 45 45 45 45 45 44 44
53 51 52 52 53 53 52 52 52 53 53 54 54 54 55 56 54 53 53 53 52 51 50 49 48 48 48 48 48 47 46 44 45 44 42 43 43 44 41 45 44 43
52 52 53 52 53 53 53 52 53 53 53 53 53 54 55 55 54 53 51 52 51 49 48 48 48 48 48 48 46 46 45 44 44 42 41 41 42 43 42 43 41 41
53 53 53 52 53 54 53 52 52 52 53 52 53 53 54 53 53 54 52 51 50 48 47 46 46 46 47 47 45 45 46 46 45 42 41 41 43 40 42 42 43 40
53 53 53 54 54 53 53 52 52 53 52 52 52 53 53 53 53 53 52 50 49 48 46 46 45 46 47 46 45 43 42 44 45 43 42 42 42 41 38 40 41 41
53 53 55 54 53 53 53 53 53 53 52 52 51 52 51 53 53 52 51 50 49 46 46 46 45 46 45 44 43 42 42 42 43 43 42 42 41 40 39 41 40 41
54 53 54 54 54 53 54 53 53 52 52 50 51 51 51 52 52 51 50 49 49 46 45 45 45 44 44 44 44 44 43 43 42 41 42 41 41 41 41 41 40 40
53 54 54 54 54 54 53 53 53 52 51 51 50 50 51 51 51 50 49 47 46 45 45 44 44 44 43 42 42 43 44 43 42 42 41 39 39 39 38 39 40 39
52 53 54 54 54 54 54 52 52 52 51 50 50 50 50 50 50 49 49 47 46 46 45 44 44 43 43 43 42 42 42 41 42 41 39 40 39 37 37 38 38 37
53 54 54 54 54 53 53 53 52 52 51 50 50 50 50 49 48 48 49 47 47 45 45 45 45 43 42 42 42 42 41 40 37 38 36 37 39 37 37 37 36 36
54 54 54 54 53 53 52 52 52 51 51 51 51 51 51 50 52 49 48 46 46 46 45 46 44 44 43 42 42 40 37 36 36 34 36 36 36 35 36 36 35 36
50 53 53 53 53 52 52 52 51 51 51 50 48 48 49 50 49 49 48 48 46 45 45 46 45 45 44 41 40 36 34 33 37 36 34 35 35 35 34 34 35 35
50 51 52 53 53 52 52 51 51 51 50 49 48 49 50 48 47 46 48 49 47 45 44 45 45 43 40 39 40 40 36 36 34 35 35 35 34 34 34 34 34 31
48 50 51 52 52 51 51 51 51 49 49 48 48 49 48 49 49 46 46 45 45 44 44 44 43 42 38 38 38 39 39 35 35 35 36 34 33 33 32 32 33 34
48 49 50 51 51 51 51 51 49 48 48 48 48 49 49 48 46 46 46 45 45 43 43 42 41 39 37 38 38 37 38 37 31 34 33 33 33 33 33 33 33 33
47 47 49 50 51 51 51 50 49 48 49 49 49 49 48 47 47 46 45 44 44 43 42 41 39 39 37 38 37 37 36 36 33 34 35 33 33 33 34 33 33 33
46 46 48 50 50 50 50 49 49 49 49 48 48 47 47 46 46 46 45 44 44 43 42 41 37 37 37 37 36 36 35 36 35 36 34 34 34 35 34 34 33 34
45 46 48 49 49 50 50 49 49 49 48 48 47 47 47 45 45 44 44 43 43 42 40 37 36 36 36 36 36 35 35 35 34 34 33 33 33 33 32 32 32 32
44 46 47 48 49 49 49 49 48 48 48 47 46 45 45 44 44 43 43 42 42 41 40 38 34 37 36 36 35 35 35 31 33 31 31 33 33 33 32 32 33 32
44 45 46 48 48 48 49 49 49 48 48 46 45 43 43 43 42 43 42 41 40 39 38 36 35 36 36 35 35 35 34 31 30 30 32 32 32 33 33 32 31 34
44 46 46 48 48 48 49 49 49 48 47 46 46 45 45 45 43 42 42 42 40 40 40 38 36 35 35 35 35 35 35 33 30 30 31 32 32 31 32 31 31 33
45 46 47 48 48 48 49 49 48 46 45 44 44 44 44 44 43 43 43 41 41 40 40 38 36 35 37 35 35 35 36 31 31 30 31 31 31 30 30 31 31 32

ECMWFNIL_sfc_dewp_021.txt.gz
Dewpoint
52 52 51 49 48 50 52 50 51 51 50 49 49 51 51 52 50 51 52 53 52 51 49 50 50 50 50 50 50 47 49 52 51 51 51 51 51 52 51 49 50 49
55 53 52 50 48 48 51 51 52 52 50 50 51 51 53 53 51 51 52 53 51 51 50 50 50 49 49 48 49 48 48 51 50 49 51 51 50 51 50 50 50 49
54 55 55 53 50 50 53 53 53 53 50 50 52 52 53 54 52 51 53 53 51 52 51 51 51 49 50 49 49 49 49 49 50 50 51 50 51 50 49 50 48 49
55 56 55 55 53 51 52 53 52 52 52 50 50 52 53 55 52 52 53 52 52 52 52 51 51 50 48 48 50 49 49 50 49 50 49 49 49 48 49 48 47 47
56 56 55 55 54 54 55 55 53 51 51 51 52 52 52 55 53 52 52 51 52 52 52 51 50 50 49 48 48 48 49 48 49 49 47 47 48 48 48 48 47 47
57 55 53 53 54 54 54 55 54 52 50 52 52 52 53 55 52 52 52 52 51 51 51 51 49 49 49 48 49 49 48 47 48 49 46 46 45 46 43 46 46 47
56 57 56 53 54 54 55 56 55 53 51 50 51 53 52 55 52 51 50 51 50 50 50 50 49 50 49 50 48 49 48 48 47 46 45 46 46 46 44 46 43 43
54 54 56 56 56 55 56 55 54 53 55 53 51 53 52 53 51 52 51 51 49 49 50 49 49 48 48 49 47 49 49 49 47 45 44 44 46 45 46 44 45 43
55 54 53 55 55 55 55 55 55 56 53 53 54 51 51 51 51 51 51 50 50 50 49 49 48 48 49 48 47 48 47 48 47 45 45 46 45 44 42 44 45 46
56 56 54 53 53 53 53 51 54 56 54 54 54 52 52 52 51 50 50 51 51 50 49 49 48 48 48 47 45 46 46 45 45 46 45 45 45 43 39 42 44 44
56 56 56 58 57 57 58 57 57 55 55 53 56 54 53 56 53 49 50 50 52 50 49 49 49 48 48 47 47 48 46 46 45 44 45 45 44 43 47 41 42 42
56 56 57 57 57 59 60 58 55 56 55 54 52 53 52 53 53 52 50 49 50 50 49 49 49 49 47 47 46 47 47 47 46 45 45 43 44 44 42 42 42 40
55 56 57 57 57 58 58 57 56 58 58 58 55 53 52 50 50 51 51 50 50 50 50 50 49 49 48 48 47 46 46 46 46 46 45 45 45 42 41 41 40 38
44 46 48 52 55 56 57 57 57 56 57 56 54 54 52 51 50 49 52 52 51 50 50 50 49 48 48 48 47 47 47 47 46 46 45 45 44 41 40 40 39 38
42 43 44 45 46 48 51 53 56 58 58 58 55 54 55 53 52 52 52 52 51 52 50 50 50 50 48 48 48 47 47 47 47 45 45 44 42 40 40 39 38 38
39 42 42 42 43 44 44 47 49 50 52 54 55 54 54 54 52 54 53 55 53 52 51 52 51 51 49 45 45 47 47 46 47 46 44 43 42 41 40 39 38 39
34 36 39 39 41 43 43 43 43 46 49 51 52 53 54 54 54 54 54 53 54 52 51 52 52 50 43 41 41 43 47 48 46 44 42 41 40 40 39 39 39 36
32 33 33 35 38 38 41 42 43 43 44 47 50 51 52 53 54 53 53 53 56 55 54 57 55 44 40 41 41 40 43 46 44 43 42 41 40 39 38 37 37 38
30 31 31 34 35 36 38 41 41 44 44 44 47 50 51 51 51 53 53 53 53 53 52 54 52 39 38 38 37 37 38 41 41 42 40 39 39 38 36 35 35 35
33 32 33 34 36 36 37 37 39 40 44 47 48 49 50 51 51 51 52 53 53 52 52 52 50 38 37 36 36 35 35 36 41 41 40 37 37 37 37 36 36 36
35 34 35 35 35 36 39 38 39 41 42 43 44 47 49 49 50 51 51 53 52 52 52 53 46 37 36 35 35 34 33 33 40 40 37 36 36 36 36 36 35 36
36 36 37 35 35 36 37 37 39 42 43 45 44 44 46 47 48 49 51 52 52 52 53 45 42 35 35 34 33 33 33 38 38 37 34 34 34 35 35 36 36 36
35 36 37 37 37 37 36 39 40 41 42 44 44 44 45 46 48 47 48 50 51 51 51 43 38 35 33 33 32 32 33 35 38 35 34 35 35 35 35 36 37 35
35 34 34 35 35 35 36 38 40 40 41 43 44 44 44 45 46 46 47 49 50 51 48 40 36 35 33 32 32 31 34 35 35 34 33 33 34 35 35 34 35 43
35 36 36 37 37 36 38 39 40 41 41 42 44 45 45 45 44 46 48 49 50 49 41 38 35 34 34 32 32 32 35 38 33 30 31 32 32 32 35 35 33 38
37 37 38 39 39 40 41 41 41 41 42 43 44 43 42 43 43 45 49 46 42 39 39 37 35 34 35 33 33 33 33 35 33 30 30 31 32 31 33 33 31 30

ECMWFNIL_sfc_dewp_024.txt.gz
Dewpoint
58 57 57 58 58 57 57 58 56 57 58 58 57 56 56 56 55 58 58 57 57 56 56 56 55 55 56 55 56 52 53 55 55 55 54 54 53 53 53 52 52 51
57 57 55 57 58 57 58 61 58 57 58 59 58 58 56 56 56 58 57 57 56 57 56 56 55 54 55 54 55 54 55 55 53 52 54 54 53 53 53 53 52 52
57 58 56 56 56 59 58 59 61 58 59 59 60 58 57 56 55 58 57 57 55 55 56 56 56 55 55 54 54 55 54 54 55 55 55 52 53 53 53 53 52 51
58 59 58 57 56 59 58 57 60 59 60 59 60 58 57 56 56 57 58 57 56 56 56 56 56 55 54 53 55 55 54 54 54 54 54 53 54 52 52 52 51 50
59 59 61 60 59 60 58 57 58 60 60 59 60 59 57 57 56 56 57 56 57 55 55 55 55 55 55 53 54 54 53 54 53 53 53 52 52 52 52 53 51 50
59 57 58 60 60 61 61 59 59 59 60 59 60 58 59 57 55 55 55 55 55 55 54 53 53 54 53 52 54 54 52 52 51 53 51 50 49 50 47 51 49 50
60 61 61 59 58 61 57 61 60 60 59 61 58 57 59 58 56 54 53 54 52 53 52 53 52 53 52 53 51 53 51 53 49 50 49 49 50 49 49 49 49 47
59 61 61 60 61 61 60 59 57 59 60 60 61 58 53 55 55 57 55 54 52 51 52 52 52 51 51 52 50 52 50 53 50 48 48 48 49 46 49 51 49 47
59 61 58 59 59 59 60 59 60 58 58 59 59 57 59 57 54 54 54 53 52 52 51 52 51 50 51 52 51 51 49 52 51 49 49 50 48 48 45 46 48 49
58 57 59 57 56 58 59 59 59 59 59 58 57 59 57 59 59 57 53 52 52 52 51 51 51 51 51 50 49 49 49 50 49 49 49 49 47 46 44 47 47 48
59 60 59 59 58 57 59 59 58 58 57 56 58 59 58 59 59 58 56 53 53 51 51 51 51 51 50 50 51 52 50 50 48 47 48 48 48 48 50 46 47 48
59 60 60 60 60 60 60 60 59 58 58 57 56 56 57 59 56 56 55 53 51 51 50 51 51 51 50 50 49 50 52 51 49 49 49 47 48 48 46 47 48 46
56 59 59 60 61 61 61 59 57 57 57 57 57 56 56 56 55 54 54 54 53 51 51 52 52 51 51 50 49 49 49 49 50 49 49 49 48 46 46 45 46 45
54 56 58 59 59 60 60 60 59 59 57 58 58 56 55 56 55 54 53 53 53 52 52 57 55 54 52 51 50 50 50 49 49 49 48 49 50 47 48 46 46 46
51 53 53 54 52 56 58 59 59 58 59 59 58 57 58 59 59 58 57 56 57 57 55 57 59 57 57 56 54 50 50 49 49 47 48 48 48 47 47 46 45 45
50 52 50 53 52 53 53 55 55 57 58 58 59 58 57 57 57 57 57 57 57 56 56 57 58 58 55 51 50 51 50 48 50 49 48 48 47 46 46 45 45 45
50 51 50 49 52 52 52 51 48 54 56 56 58 57 57 56 56 56 55 56 56 55 55 56 57 57 50 46 45 45 49 50 49 49 49 48 47 46 44 44 45 41
44 47 47 47 49 48 49 50 52 52 52 52 54 56 56 56 56 56 55 56 56 56 56 57 57 52 48 44 41 42 46 49 49 49 49 47 45 44 43 43 42 43
45 46 45 46 47 46 50 50 49 49 48 51 52 54 55 55 55 56 55 56 56 55 56 57 55 45 44 42 41 41 43 47 48 47 46 45 44 43 42 42 41 43
45 46 46 46 49 48 48 47 47 47 50 51 52 52 53 54 55 55 55 55 55 55 55 55 54 44 42 41 41 40 40 44 46 47 45 44 44 43 44 44 43 44
44 44 46 47 47 47 47 46 46 48 49 50 49 50 51 51 51 52 53 53 54 55 54 53 50 41 40 40 39 39 38 40 47 47 44 45 45 45 43 46 44 43
44 47 48 47 47 47 46 46 48 49 49 50 50 50 49 48 49 51 52 53 54 54 54 51 46 38 38 38 37 36 37 43 42 41 41 41 41 42 43 42 43 42
45 45 46 47 46 46 45 46 48 49 49 49 48 49 49 49 48 50 50 51 52 53 53 47 43 38 36 36 35 35 39 41 39 36 38 39 42 43 43 42 43 41
43 38 44 45 45 44 45 47 47 47 47 48 46 46 47 47 49 48 50 49 51 51 49 45 41 38 35 34 35 36 39 40 39 39 39 38 41 43 43 41 40 46
44 44 43 46 44 43 47 46 47 46 44 47 45 45 46 47 46 47 48 49 47 47 44 42 38 35 34 33 34 35 39 41 38 37 37 39 38 38 39 39 40 43
43 43 43 41 40 43 47 48 48 47 46 44 46 43 42 46 46 46 47 44 44 42 42 39 35 34 34 33 33 33 34 36 39 41 39 39 40 38 39 40 37 37

ECMWFNIL_sfc_dewp_027.txt.gz
Dewpoint
52 53 53 52 53 53 53 51 53 53 53 53 53 52 52 52 54 52 53 51 51 51 51 50 51 51 53 52 52 52 53 53 51 50 50 51 49 49 49 48 48 50
53 54 54 53 54 54 54 52 54 53 54 53 53 53 52 52 53 54 54 52 52 51 51 51 51 51 51 51 51 51 51 49 48 52 49 49 49 50 47 48 48 49
53 53 53 53 53 52 54 54 53 53 55 54 54 53 52 51 53 54 53 52 52 51 51 51 49 51 51 50 51 51 50 49 50 51 51 51 50 49 49 48 48 48
53 52 52 53 54 52 53 55 53 52 55 55 53 53 52 52 52 54 53 56 52 51 51 51 50 51 50 50 52 50 51 51 51 50 50 50 51 49 47 48 49 48
54 53 53 52 55 53 52 54 53 53 52 55 55 54 52 51 52 54 54 53 53 51 52 51 51 50 50 49 51 50 51 50 50 50 49 47 48 48 49 49 47 46
57 55 54 53 56 53 52 53 54 53 52 54 55 54 52 51 52 53 53 53 53 52 52 52 51 51 50 48 50 48 50 48 48 50 50 48 45 47 49 48 46 45
56 56 56 55 54 55 56 55 55 55 55 53 55 54 53 52 51 53 53 52 53 53 52 52 51 51 50 48 49 48 49 49 48 49 48 47 46 46 47 46 47 48
57 57 57 56 55 55 54 54 55 57 56 55 54 54 54 53 51 53 53 53 52 53 53 52 51 51 50 50 48 49 47 51 48 48 48 47 46 45 44 49 45 45
57 56 55 54 54 54 54 54 55 55 56 56 54 54 54 55 53 53 53 53 52 52 52 52 51 51 50 50 49 50 47 49 49 47 48 47 46 45 46 46 43 45
55 56 55 55 55 56 55 55 55 56 56 56 57 55 54 54 54 54 54 53 52 51 51 52 52 51 50 50 50 50 49 50 49 47 48 49 46 46 46 46 45 46
56 56 56 55 54 55 54 55 55 55 56 55 55 56 55 55 55 55 53 53 53 52 51 52 52 51 50 50 50 50 50 50 48 47 48 49 46 47 49 46 46 46
56 57 57 57 57 56 55 54 54 55 54 54 56 56 56 56 55 55 55 54 53 53 52 52 52 51 51 50 49 49 50 49 48 47 47 48 47 47 47 46 46 47
55 56 56 56 56 57 57 56 55 54 54 54 54 55 54 54 55 55 55 55 55 54 53 52 54 54 55 54 53 50 50 49 48 47 47 47 47 47 47 46 47 45
54 54 54 55 57 58 57 56 55 54 54 53 54 54 54 53 54 54 53 54 54 53 53 54 55 54 54 54 54 52 50 49 48 47 47 47 47 47 45 44 45 45
50 51 51 53 55 56 56 56 56 56 55 54 54 55 54 54 54 54 53 54 54 54 54 54 55 55 55 55 54 54 52 49 49 47 47 47 47 46 45 45 44 44
47 45 44 48 51 53 55 55 55 55 56 56 56 56 55 54 54 54 54 54 54 54 54 54 55 56 54 51 51 54 53 51 50 48 47 47 47 45 44 43 42 42
43 44 44 42 45 47 46 52 54 55 55 55 56 55 55 55 55 55 55 55 54 54 54 54 55 56 49 46 47 48 52 52 50 48 47 47 46 44 42 41 42 42
40 38 37 40 41 41 43 44 45 46 50 54 55 55 55 53 54 55 55 54 54 54 53 54 54 51 46 46 45 45 47 52 50 48 48 47 45 44 42 41 41 43
37 37 40 41 41 42 42 41 42 41 42 45 45 47 51 53 54 54 54 54 54 54 54 54 53 50 46 46 45 44 43 47 50 48 47 46 45 44 42 41 41 42
36 36 36 41 43 42 42 40 41 41 43 44 44 44 44 45 46 49 50 51 53 54 54 54 54 50 45 45 45 43 41 43 50 48 47 45 44 44 43 42 42 41
38 37 39 38 38 38 39 39 41 43 45 45 44 43 44 46 46 46 47 49 50 51 51 51 54 49 45 44 43 40 40 44 46 46 44 44 43 43 42 42 41 42
37 39 39 39 38 39 40 40 41 42 39 42 42 43 46 46 45 45 46 47 49 48 49 48 50 46 43 42 41 39 41 45 44 43 42 43 42 42 40 40 40 40
36 40 40 39 40 38 37 38 39 40 42 43 41 41 41 42 44 44 45 45 46 47 46 44 44 39 39 39 38 38 41 42 42 40 40 40 39 39 39 39 41 41
36 34 36 40 40 38 39 40 41 41 41 42 39 39 41 42 43 44 44 44 45 46 46 42 37 37 37 37 38 39 39 41 39 39 40 38 39 40 40 40 42 48
36 37 37 39 39 39 40 40 40 39 40 40 40 40 40 41 42 41 42 42 42 43 44 39 35 36 36 37 37 38 39 38 38 39 37 37 37 38 39 40 39 39
35 35 36 37 37 39 40 40 41 41 40 39 39 40 40 40 42 42 41 40 39 40 39 36 33 33 35 35 36 37 39 39 38 36 36 37 37 35 36 34 34 35

ECMWFNIL_sfc_dewp_030.txt.gz
Dewpoint
52 52 51 51 52 52 51 53 52 51 50 49 49 49 48 48 52 50 49 49 49 49 49 50 51 52 52 52 52 52 51 50 49 48 49 49 47 47 47 47 47 46
53 54 53 52 52 53 52 53 52 51 51 50 50 49 49 51 51 51 49 50 50 48 48 49 50 50 51 50 50 49 48 48 49 51 49 49 47 47 47 47 45 45
55 54 53 52 52 52 52 53 53 52 51 51 51 50 51 52 52 50 49 49 49 48 48 49 49 50 50 50 50 49 48 49 49 49 50 48 48 47 46 46 46 45
55 54 53 53 52 52 52 53 53 53 52 52 51 51 51 52 52 51 50 53 49 49 48 48 49 49 50 50 49 49 49 49 48 49 49 48 49 47 47 47 47 45
54 54 54 53 53 53 53 53 52 53 53 52 51 51 51 52 52 51 51 50 49 49 49 49 49 49 49 49 49 49 48 48 48 47 47 46 46 47 48 47 46 45
53 53 53 53 53 52 53 52 52 54 53 52 52 51 50 52 52 51 51 50 49 49 49 49 49 50 48 49 49 49 49 48 47 47 47 46 46 47 48 46 45 45
54 54 55 55 53 52 53 52 52 53 53 52 52 51 50 51 52 51 51 50 50 50 49 49 49 49 48 49 49 48 48 47 48 48 47 45 46 45 47 46 47 45
55 53 53 53 53 52 53 53 53 52 53 53 52 51 50 50 51 52 51 51 50 50 50 49 49 50 50 48 49 47 48 48 47 48 47 46 45 44 45 47 46 45
55 54 54 54 53 53 54 54 54 54 54 53 52 52 51 50 51 52 52 52 51 50 50 50 49 49 50 47 48 48 47 49 48 47 47 46 45 44 44 46 43 46
54 54 55 55 55 55 55 54 55 55 55 54 54 53 52 52 51 52 52 52 52 52 51 50 50 50 50 48 47 48 46 48 48 46 47 46 45 44 44 45 42 44
53 54 54 55 55 56 55 55 55 55 55 54 54 53 53 54 53 52 52 52 51 52 52 51 51 50 49 49 48 48 47 47 48 46 46 47 46 45 47 45 45 43
53 53 53 53 54 54 54 54 55 55 55 54 54 54 54 54 54 54 53 52 52 51 51 52 51 51 50 49 49 48 48 47 48 47 46 47 47 46 47 45 45 45
53 53 54 54 55 55 54 54 54 54 55 54 54 53 53 53 53 53 54 54 53 52 52 52 52 52 51 50 49 49 49 48 48 48 47 47 47 46 47 46 45 45
54 54 55 55 55 55 54 54 54 54 54 53 53 52 52 52 53 53 53 52 53 53 53 53 53 52 52 52 50 49 49 49 49 48 47 46 47 47 47 47 46 46
53 53 54 55 55 55 54 53 52 52 52 51 51 52 52 52 52 52 52 52 52 52 52 52 53 53 53 53 52 51 50 49 49 48 47 46 47 47 46 46 46 45
50 50 50 51 52 53 53 53 52 52 52 52 52 52 51 51 51 51 51 51 52 51 51 51 52 53 53 50 50 53 52 50 50 49 48 47 47 46 45 44 44 44
45 45 45 47 50 51 51 52 53 52 52 52 52 52 52 51 52 51 51 51 51 51 51 52 52 54 49 46 46 48 52 52 50 49 48 47 47 46 45 43 43 42
43 42 40 41 45 45 46 47 48 50 51 50 51 52 52 52 52 52 51 51 51 50 51 52 52 51 48 46 45 44 47 53 51 50 49 47 47 46 45 43 42 43
39 39 40 40 40 41 41 42 42 43 44 46 47 48 50 50 51 51 52 51 50 51 51 51 51 49 47 45 44 43 43 48 51 50 49 48 47 46 44 43 42 43
39 39 39 39 41 40 40 39 39 39 41 42 42 43 45 46 46 48 48 48 48 50 51 51 51 49 46 45 45 44 42 44 50 50 49 48 47 46 44 42 42 42
37 38 38 38 38 39 40 40 40 41 40 41 42 42 41 41 41 42 42 44 45 47 48 50 51 48 45 44 43 43 43 43 48 49 49 48 47 46 44 42 43 43
36 37 38 37 37 38 37 37 38 40 37 37 39 39 40 40 40 41 41 42 43 45 45 47 47 40 45 44 43 42 41 45 46 45 45 44 44 44 43 43 44 43
36 39 38 38 38 37 36 36 36 36 38 41 38 37 38 38 38 40 41 42 42 42 43 43 40 37 40 42 40 39 42 43 42 42 42 42 41 42 42 41 41 41
38 39 38 39 38 37 37 37 38 38 38 40 36 36 36 37 38 39 39 39 40 42 42 42 37 37 38 38 38 39 42 42 41 41 40 40 40 39 40 42 44 46
37 37 38 38 38 38 38 37 38 38 38 39 37 37 37 38 40 37 37 38 38 38 43 36 34 37 37 37 38 39 41 40 39 39 38 36 37 38 37 36 36 41
36 35 38 38 38 38 38 39 39 39 38 38 37 38 38 38 38 38 37 36 36 35 35 34 34 34 36 37 38 38 38 39 38 36 36 36 37 36 34 33 33 34

ECMWFNIL_sfc_dewp_033.txt.gz
Dewpoint
52 52 51 52 52 53 51 51 49 48 47 47 47 46 46 46 49 47 47 48 48 49 49 50 51 51 52 51 50 50 49 49 48 47 47 48 46 46 46 46 46 46
52 52 52 52 53 53 52 51 51 49 48 48 48 47 47 48 49 47 47 48 48 47 48 49 49 49 49 49 48 48 47 48 48 49 47 46 46 45 45 45 45 44
53 52 52 51 52 52 52 52 52 50 49 49 48 48 48 50 49 47 48 47 47 47 48 49 49 49 49 48 47 48 48 47 48 47 48 45 45 45 44 44 45 45
53 52 52 52 53 52 52 52 52 50 50 49 49 49 49 51 49 48 48 53 47 47 47 48 48 48 48 48 47 47 47 47 47 47 48 46 47 46 45 45 45 43
53 53 53 52 53 54 52 52 52 51 51 51 49 49 50 50 49 48 48 48 47 47 47 47 47 48 48 48 47 47 47 47 46 46 46 45 45 45 45 44 43 43
53 52 52 52 53 52 52 52 52 52 52 50 50 50 49 50 50 48 48 47 47 47 47 47 47 47 48 47 47 48 48 47 45 45 45 45 45 46 45 44 43 43
53 53 54 53 53 52 52 52 52 52 52 52 51 50 49 50 50 49 49 48 47 48 47 47 47 47 47 47 47 47 46 46 46 46 45 44 45 45 45 44 44 44
53 53 54 54 53 55 53 52 52 53 53 52 51 51 50 50 51 51 50 49 48 48 48 48 47 47 47 47 48 47 46 47 47 45 45 44 44 44 44 45 44 44
54 53 54 54 53 53 52 53 52 52 53 52 52 51 51 50 51 52 52 51 50 49 49 48 48 48 48 47 47 47 47 46 47 46 45 44 43 44 44 44 43 44
53 53 54 54 54 54 53 53 53 53 53 53 52 52 51 50 51 52 52 51 50 50 49 49 49 49 49 48 48 48 48 48 47 47 46 45 44 44 45 44 43 43
52 53 53 54 54 54 55 55 55 54 54 54 54 53 53 52 52 52 52 51 51 50 49 49 49 49 49 49 48 48 47 48 47 46 47 46 45 44 47 44 43 44
53 53 53 53 54 53 53 54 55 54 54 54 54 55 54 54 54 54 53 52 51 51 51 50 50 50 49 49 49 48 48 47 48 47 46 47 46 45 46 45 43 43
52 53 54 54 54 54 53 53 53 52 53 52 53 53 53 53 54 54 54 54 54 53 52 51 51 51 50 49 49 48 48 47 47 48 47 46 47 46 45 45 45 44
53 53 53 54 54 54 53 53 53 52 52 52 53 53 53 53 53 54 54 54 54 54 53 52 51 51 50 50 50 49 48 48 48 48 48 47 47 47 46 46 45 45
52 52 52 53 53 53 52 52 53 53 53 52 52 53 53 52 53 54 53 53 52 52 51 51 52 52 52 52 51 50 49 48 48 48 48 47 47 47 47 46 46 45
51 51 52 53 53 53 52 52 52 52 53 52 52 52 53 53 53 52 51 52 52 51 50 49 51 51 52 49 49 51 50 49 49 49 48 48 47 47 47 47 47 46
49 50 50 51 52 52 52 51 52 52 52 52 52 51 52 52 51 51 51 51 50 50 50 50 51 52 48 46 45 46 51 50 49 49 49 48 48 47 47 48 46 46
46 46 47 48 49 51 51 51 51 52 52 52 52 51 51 51 51 51 50 49 48 48 49 50 50 50 47 46 44 43 46 51 50 50 49 49 48 47 47 47 46 45
41 40 40 40 42 43 42 43 46 48 49 49 49 47 47 48 49 47 47 47 48 49 49 49 50 48 46 45 44 43 42 46 51 49 49 49 48 48 47 47 45 44
40 40 39 39 40 39 40 39 40 39 40 41 41 42 42 42 42 43 43 44 46 46 46 47 48 47 45 44 43 42 41 42 49 49 48 48 48 48 47 46 45 43
38 38 38 38 38 38 38 38 38 39 39 41 39 39 40 39 40 39 41 42 41 43 44 47 48 44 40 41 41 41 41 40 47 47 47 47 47 47 47 46 44 43
37 37 37 36 37 37 36 36 37 37 35 37 38 37 38 37 38 39 39 39 40 40 42 42 43 39 39 41 41 40 40 44 44 45 45 45 45 44 44 42 43 43
36 36 37 36 36 35 35 35 34 34 35 38 35 35 36 37 37 38 38 37 39 39 39 41 41 38 37 40 40 39 41 43 42 42 42 41 39 40 40 41 42 43
37 37 37 38 36 36 36 36 36 36 36 39 34 34 35 37 37 36 36 37 37 38 38 39 38 37 37 38 39 39 43 42 40 40 38 38 38 38 39 40 43 46
38 38 38 38 38 37 36 35 36 37 37 38 35 36 36 37 38 36 34 35 34 34 40 34 33 36 38 37 38 39 41 40 40 39 38 36 36 35 35 35 36 39
38 38 39 39 38 38 38 38 38 38 37 37 36 36 37 35 36 35 34 32 32 31 33 32 33 33 37 37 38 39 40 40 39 37 37 35 34 34 34 33 33 34

ECMWFNIL_sfc_dewp_036.txt.gz
Dewpoint
53 53 52 52 53 53 51 50 49 48 47 47 47 46 47 47 51 48 49 49 51 49 50 51 51 51 51 50 51 49 49 49 49 48 48 48 47 47 47 47 47 47
53 53 53 53 53 53 52 52 50 49 48 47 47 47 47 49 49 48 48 49 49 49 49 50 50 50 49 49 49 49 48 48 48 49 47 47 47 46 46 47 46 47
53 53 53 52 53 52 52 52 51 50 48 48 48 48 49 51 49 48 48 49 48 48 49 49 49 50 49 48 48 49 48 48 48 47 48 46 46 46 46 46 46 46
53 52 52 53 53 53 53 54 52 50 50 49 49 50 51 52 49 48 48 53 48 48 48 49 50 49 48 48 48 48 48 48 48 47 47 47 48 46 46 47 46 45
53 52 53 53 53 54 54 53 52 51 50 50 49 50 52 50 49 48 48 49 48 48 48 49 49 49 49 48 48 49 50 48 48 47 46 46 47 46 46 46 45 45
53 52 52 52 53 53 53 54 52 52 51 50 49 51 49 50 50 49 49 48 48 48 48 47 48 48 48 48 48 48 48 48 47 46 46 47 47 46 44 45 45 44
53 53 53 53 53 53 53 53 54 53 52 51 51 50 50 50 50 50 49 49 48 50 48 48 48 48 48 48 49 48 47 47 47 46 46 46 47 46 45 45 45 44
53 53 53 53 53 54 52 52 53 54 52 52 51 51 50 50 51 51 51 49 49 49 49 49 48 48 48 48 49 48 48 48 47 46 46 46 46 45 45 46 45 45
52 52 53 53 53 53 52 53 52 52 53 52 51 51 51 51 51 51 51 50 50 50 49 49 48 49 48 48 48 48 48 48 48 46 46 46 46 46 45 45 45 46
52 52 52 53 52 53 53 52 52 53 54 53 53 52 51 51 51 52 52 51 51 50 50 49 49 49 49 48 49 48 48 48 48 47 47 46 46 46 46 45 46 45
52 52 53 53 53 53 53 53 53 54 54 53 53 53 53 52 52 52 52 52 52 51 51 50 50 50 49 49 49 49 49 49 48 48 48 47 47 46 48 46 45 46
51 51 52 53 53 53 53 54 54 54 54 54 54 54 54 54 53 54 53 52 52 53 53 52 52 52 51 50 50 50 49 49 49 48 48 48 48 47 47 47 45 46
52 52 53 53 54 53 53 53 54 54 54 53 54 54 54 53 54 54 54 54 53 54 53 53 54 53 52 51 51 50 49 48 48 48 48 48 48 48 47 47 46 45
53 53 53 53 53 54 53 53 53 53 53 53 53 52 52 53 53 54 54 54 53 54 54 54 54 53 53 53 52 52 50 49 49 48 48 48 48 48 47 47 47 47
52 53 53 53 53 52 52 52 53 53 53 53 53 53 53 52 52 53 53 53 53 53 53 53 53 53 53 53 52 52 51 49 49 48 49 49 49 48 48 47 47 47
51 50 51 52 52 52 52 52 52 52 52 51 52 53 53 51 51 52 52 53 52 52 51 52 52 53 52 49 49 52 51 50 50 50 49 49 49 49 49 49 49 49
50 50 50 51 51 51 50 51 51 51 51 51 51 51 51 52 51 51 51 51 52 52 51 51 52 52 48 46 45 45 50 51 51 50 50 49 49 48 48 49 49 49
49 49 50 50 50 51 51 51 50 50 51 51 50 50 51 50 50 51 50 50 50 50 51 51 51 49 46 45 44 43 45 51 51 51 50 50 49 49 49 48 48 48
46 47 48 48 49 49 49 49 50 50 49 49 50 50 50 50 51 50 50 50 50 51 51 51 51 47 44 42 41 40 40 45 50 51 50 50 50 49 49 49 49 48
43 43 44 43 43 45 46 48 49 48 48 47 46 46 47 48 48 48 47 48 48 49 48 47 48 44 39 40 39 39 39 41 49 50 50 50 50 49 49 49 49 48
40 39 39 39 40 41 43 44 45 42 42 42 42 43 44 44 44 43 43 44 43 44 44 45 45 39 37 37 39 39 38 39 47 48 49 49 48 48 48 48 48 47
38 38 38 38 38 38 39 39 39 40 41 41 40 40 39 41 40 41 41 42 42 42 41 42 43 39 37 37 37 38 39 44 46 47 47 47 46 44 45 46 47 46
38 38 37 37 37 37 37 38 37 37 38 39 38 37 38 39 39 40 39 40 40 39 39 40 40 38 37 37 37 37 40 46 46 46 44 41 40 40 41 43 44 44
38 38 38 38 37 36 36 37 37 37 39 40 37 37 39 39 39 37 37 38 38 39 40 39 38 37 37 37 38 38 43 45 43 41 40 39 38 38 38 40 43 46
39 40 39 39 38 38 38 37 37 38 39 39 37 38 40 40 39 37 36 35 35 38 41 36 35 36 37 37 38 39 42 41 41 40 39 37 37 36 36 36 36 39
39 38 39 38 38 38 39 38 39 39 37 37 37 39 40 38 38 36 35 34 33 33 35 35 36 35 38 36 39 39 40 41 40 40 38 36 36 36 35 34 34 35

ECMWFNIL_sfc_dewp_039.txt.gz
Dewpoint
58 58 57 57 57 57 57 55 55 54 54 54 53 54 53 55 55 56 57 58 58 57 57 57 57 56 55 55 56 54 53 56 54 54 55 55 54 55 54 53 55 51
58 57 57 57 57 57 57 57 56 54 55 55 54 54 55 55 56 56 57 56 57 57 57 56 56 55 55 53 55 54 53 54 53 52 55 54 53 54 55 55 53 52
58 58 58 57 57 58 58 57 57 56 55 55 55 55 55 56 56 56 56 56 56 56 57 56 56 55 54 54 54 54 53 53 53 53 54 52 53 52 53 53 52 53
58 58 58 58 58 58 58 57 56 55 55 54 54 55 55 56 56 56 56 55 56 56 57 56 56 54 53 53 54 52 53 52 52 53 52 52 52 51 52 52 51 50
57 57 58 58 58 59 58 58 56 56 54 55 56 55 55 56 55 54 55 55 56 55 56 55 55 55 54 53 53 52 52 51 52 52 50 50 51 52 52 51 50 50
57 55 55 57 58 58 58 57 56 55 55 55 56 55 55 56 54 53 54 54 54 54 55 55 54 54 54 54 54 53 52 50 51 51 48 49 49 50 47 50 49 48
57 56 57 56 57 58 58 57 58 56 55 56 55 56 55 55 54 52 52 52 52 51 52 54 54 54 54 54 54 53 53 52 50 48 46 48 48 49 48 49 47 46
57 57 56 56 58 58 58 57 58 57 57 55 55 55 55 54 54 55 53 52 51 51 52 51 52 52 53 53 52 53 54 54 52 49 47 48 50 46 47 48 50 46
57 56 56 57 57 57 57 57 58 58 56 57 56 55 54 54 54 55 53 52 52 53 51 52 51 52 54 53 53 53 51 53 54 51 50 49 48 47 44 46 47 47
57 57 57 57 57 58 58 58 58 58 57 57 56 56 54 55 54 53 54 54 54 52 52 52 52 52 53 52 51 51 51 51 51 52 51 50 49 47 44 47 48 48
59 58 58 58 58 58 59 58 59 58 57 56 57 56 55 55 54 54 54 53 55 53 53 53 53 53 53 53 54 54 53 53 52 51 52 51 51 50 51 49 49 49
58 58 58 58 58 58 58 58 59 59 58 58 56 56 56 56 55 54 54 53 53 53 53 53 54 55 54 54 54 54 55 54 54 54 53 52 52 55 51 53 52 49
57 57 58 58 58 58 59 57 57 59 57 57 57 57 56 57 57 56 57 55 55 55 55 55 56 56 56 56 55 55 55 54 55 54 53 53 52 51 53 52 52 52
57 58 58 58 58 58 57 57 58 58 58 59 58 57 57 55 56 56 57 56 56 56 56 57 56 56 56 56 55 56 56 56 55 55 54 53 53 51 52 54 53 52
58 57 58 58 57 57 57 57 57 58 58 58 57 58 58 57 57 56 56 56 56 57 56 57 57 57 57 57 56 55 56 56 55 54 54 54 53 52 52 51 52 52
56 57 56 57 57 57 56 57 57 58 58 57 57 56 56 57 57 57 56 56 56 56 57 59 57 56 55 50 51 54 55 54 55 55 54 54 53 53 53 52 51 53
55 55 55 55 56 57 57 57 56 57 57 57 57 57 57 57 57 55 56 57 56 56 56 57 57 56 49 46 45 44 52 56 56 56 55 54 54 54 53 54 54 51
54 54 54 55 55 55 55 56 56 56 56 56 56 56 57 57 58 56 56 56 57 56 57 57 57 49 44 44 43 42 45 56 57 57 56 55 55 54 53 54 54 54
54 54 54 54 54 55 55 56 55 55 55 55 56 56 56 56 56 56 56 56 56 55 56 56 56 39 39 39 40 40 40 46 55 57 56 56 56 55 55 54 54 54
53 54 54 54 55 55 55 54 54 54 55 55 55 55 55 55 55 55 54 55 55 56 57 55 54 40 38 38 38 38 39 41 55 57 57 57 56 56 56 56 55 55
46 48 51 52 52 53 55 55 55 55 54 54 55 55 54 54 54 54 54 54 54 54 53 54 51 38 37 37 38 39 38 38 54 55 56 57 56 56 55 55 55 55
40 42 44 45 47 49 52 53 54 54 53 51 51 51 51 50 50 51 50 50 51 51 51 51 49 37 37 37 37 38 38 51 53 54 55 55 55 53 52 52 52 53
41 40 41 41 42 45 46 48 48 48 49 48 48 48 47 48 49 50 50 50 50 50 50 50 51 41 37 37 38 38 44 52 52 52 53 53 51 49 48 49 49 49
41 40 42 43 41 41 44 46 45 46 47 46 46 46 47 48 47 47 48 49 50 50 51 49 50 42 37 37 38 38 46 53 53 53 52 49 47 46 45 45 44 44
41 43 42 43 40 42 44 43 44 45 46 45 45 46 47 46 45 45 46 45 46 48 43 49 49 43 37 37 38 39 48 53 52 51 49 47 46 44 43 43 42 40
42 42 44 44 42 46 46 46 46 46 46 45 45 45 45 45 45 45 45 44 43 44 46 48 49 47 42 37 38 39 41 50 50 49 48 46 45 42 41 41 40 38

ECMWFNIL_sfc_dewp_042.txt.gz
Dewpoint
60 60 59 56 53 54 53 51 51 51 50 51 50 51 51 54 53 55 55 54 54 53 54 55 54 55 54 54 54 49 50 52 52 52 52 52 53 54 53 52 53 49
61 61 58 57 55 55 54 53 52 50 51 51 51 51 53 54 55 54 54 53 52 52 51 52 52 53 52 51 53 50 49 51 51 49 51 52 50 51 52 53 52 50
61 61 59 57 55 56 56 56 55 52 50 50 53 53 54 55 55 55 54 53 53 53 53 51 51 51 51 52 52 51 50 51 50 48 49 48 49 50 51 49 49 50
61 60 59 58 56 57 57 57 55 53 53 52 52 53 54 55 55 55 55 54 53 54 54 52 51 49 48 50 51 48 50 49 49 50 48 48 49 48 50 50 50 49
60 61 60 59 56 57 56 56 55 55 54 53 54 53 52 54 54 52 53 53 53 53 53 52 51 51 51 50 49 50 49 48 51 49 47 48 49 50 50 49 49 49
60 58 57 57 56 57 56 56 55 55 55 57 55 52 52 52 50 50 51 52 52 52 53 52 52 52 52 51 50 50 49 47 50 49 46 47 46 47 45 48 49 47
59 59 59 57 58 57 56 57 56 54 53 53 53 54 52 51 50 49 47 49 49 50 50 52 52 53 53 53 51 50 49 48 48 46 44 44 45 47 46 48 45 44
59 59 59 58 59 57 57 58 56 54 55 55 55 54 53 50 48 50 49 48 48 48 50 50 51 51 52 52 51 52 53 53 50 47 45 45 47 43 44 44 48 45
59 59 59 59 60 58 56 54 54 57 56 56 55 54 54 52 51 52 50 50 50 51 50 50 50 51 53 52 52 52 51 52 53 52 51 49 48 46 42 44 46 46
59 58 59 59 60 58 58 55 54 56 56 56 54 54 52 54 53 51 52 52 52 51 52 52 52 53 53 51 51 51 51 52 51 52 52 52 50 47 43 45 48 48
58 59 59 59 58 58 58 56 54 54 55 55 57 55 55 55 54 53 53 52 54 51 51 52 52 53 53 54 55 54 53 53 52 52 53 52 52 51 51 50 49 49
58 58 59 58 57 57 59 58 56 54 54 54 55 55 56 56 55 54 53 52 52 51 52 52 52 53 53 54 54 55 55 55 55 55 54 52 52 52 51 52 53 51
57 58 58 58 57 57 59 57 57 56 54 52 53 54 55 55 54 53 54 53 52 53 53 53 53 54 55 55 55 55 54 54 55 55 54 55 54 53 53 53 53 53
57 58 57 57 57 57 57 57 56 57 55 53 53 54 55 53 54 54 55 55 55 54 52 53 55 54 54 55 54 55 56 56 55 56 55 55 56 55 55 54 54 54
58 57 58 57 57 56 57 57 57 57 56 56 56 56 56 54 56 56 56 55 55 56 55 57 56 56 55 55 55 55 55 56 56 55 56 56 56 56 56 55 54 55
57 57 57 57 57 56 57 56 56 58 58 58 56 56 57 57 56 56 55 55 56 56 57 58 58 59 57 50 50 56 56 54 57 57 57 56 56 55 56 56 55 55
56 55 55 55 55 56 56 55 56 57 58 57 56 56 56 56 56 55 55 55 54 55 57 58 59 58 46 46 45 45 55 56 56 57 58 58 57 57 57 57 57 54
55 55 55 55 55 54 55 55 56 56 56 56 57 58 58 59 58 56 56 57 57 56 58 58 59 43 42 42 43 42 45 57 58 58 59 58 58 57 57 56 56 57
54 54 54 55 54 54 54 55 56 56 56 57 57 57 59 59 58 58 57 57 57 56 56 57 58 40 40 40 41 40 40 47 58 59 57 55 54 54 52 52 53 53
55 55 55 55 55 54 54 54 56 56 58 58 57 57 57 57 58 59 58 57 57 57 57 57 55 39 38 38 39 39 39 42 55 53 52 50 50 51 52 51 51 50
48 51 55 56 55 55 56 55 56 57 58 55 55 56 56 56 57 56 57 57 55 52 53 52 52 35 37 38 38 38 38 39 55 57 51 51 52 53 53 53 52 54
40 43 47 50 52 53 53 53 55 57 57 56 55 56 57 58 57 55 54 50 49 49 49 47 51 35 37 38 38 38 38 56 52 53 50 49 51 54 52 52 52 52
38 38 42 44 45 48 49 51 54 55 55 55 56 55 54 53 52 49 47 47 47 46 46 44 48 42 36 37 39 38 40 50 50 46 47 49 52 54 52 53 52 51
38 37 37 38 41 42 47 50 51 52 51 50 51 47 46 46 47 46 44 42 42 41 40 41 46 43 36 38 39 38 43 49 43 44 48 49 52 53 51 48 45 44
39 39 40 41 37 40 45 46 47 47 47 48 45 45 45 44 41 40 40 41 42 45 46 44 45 45 37 37 38 38 49 47 44 45 48 49 48 50 50 48 45 43
40 40 40 41 41 43 44 43 43 44 46 45 44 40 40 38 37 37 38 41 46 44 49 47 46 49 47 38 39 40 39 54 44 42 45 47 46 45 47 47 45 42

ECMWFNIL_sfc_dewp_045.txt.gz
Dewpoint
57 57 55 53 52 53 52 51 51 52 52 51 51 51 49 52 51 52 52 52 52 53 52 53 53 53 52 53 52 47 49 52 50 52 51 50 51 53 52 51 51 48
59 57 55 54 52 52 52 52 53 51 51 51 51 50 51 52 51 50 50 50 50 50 50 51 52 51 51 50 51 50 49 50 48 46 51 50 49 50 51 51 50 47
59 58 56 54 53 54 53 53 53 52 51 51 52 52 52 53 52 52 51 50 49 49 50 50 50 50 50 50 50 49 48 48 48 47 48 47 49 49 50 50 48 48
60 60 57 54 54 54 54 53 52 52 53 52 51 52 52 53 53 52 51 50 50 50 51 50 50 49 47 48 49 47 48 47 47 48 48 48 49 48 50 50 50 49
61 60 58 54 55 55 55 53 52 52 52 51 52 52 51 53 53 50 51 51 50 48 49 49 50 50 49 48 47 47 49 48 48 47 47 48 50 50 50 50 50 49
60 59 58 53 53 55 54 53 52 51 51 52 53 51 52 51 50 49 51 51 49 49 50 49 49 50 49 49 50 49 48 47 49 47 45 46 46 47 43 47 48 48
61 61 59 55 52 53 51 53 55 54 55 54 51 52 52 50 49 49 47 49 49 48 48 51 51 51 51 51 50 49 48 49 47 44 42 42 44 47 46 46 43 43
61 60 58 57 54 53 52 53 54 54 56 54 53 51 51 48 46 49 49 48 47 48 48 48 49 50 51 51 48 50 51 49 48 46 45 46 46 43 45 45 48 44
60 59 58 58 58 54 52 54 53 51 51 53 54 50 50 48 47 48 47 47 48 49 48 48 49 50 53 51 51 50 50 51 50 48 48 48 47 45 42 45 46 46
60 60 60 59 59 55 54 56 54 52 51 52 53 52 49 49 49 46 47 48 48 48 48 49 49 52 52 51 50 50 50 49 50 51 50 49 47 44 42 45 48 48
59 59 60 60 59 57 55 55 53 54 52 51 53 52 51 51 50 48 48 48 51 48 48 49 50 51 51 52 53 53 52 52 51 51 52 51 50 50 51 48 48 49
59 59 61 60 60 58 57 53 53 54 53 52 51 49 52 52 50 50 49 49 49 48 48 49 49 51 51 51 52 53 54 54 54 53 53 52 52 52 49 51 52 49
58 58 61 61 59 58 59 57 51 51 52 51 52 51 51 52 51 50 51 50 49 49 50 50 50 52 53 55 55 53 55 55 55 55 55 55 54 53 52 52 52 52
59 60 60 59 57 56 57 57 58 52 50 50 50 50 52 50 50 51 52 50 51 52 52 52 52 53 53 55 54 55 56 56 54 55 54 54 55 53 55 54 54 54
57 59 60 58 56 55 56 56 56 57 55 53 52 51 53 52 51 50 51 51 51 54 52 53 54 54 54 54 56 53 55 56 55 54 54 54 54 54 54 55 55 55
57 58 58 58 57 57 57 58 57 57 57 57 58 57 53 52 50 51 51 52 53 54 54 55 56 56 55 48 48 58 57 54 57 57 56 55 56 55 56 57 56 56
56 57 58 58 58 58 57 58 57 58 57 58 58 59 58 58 60 55 55 55 55 57 58 59 60 58 45 45 47 44 56 57 56 57 56 58 58 57 56 57 57 55
56 56 55 56 58 56 56 56 57 57 57 57 57 58 58 58 58 55 55 55 55 55 57 57 59 44 45 45 44 44 44 56 56 56 58 58 56 57 56 58 58 57
54 55 55 55 56 56 56 57 56 57 57 57 57 58 59 59 57 57 57 57 57 56 57 58 56 40 42 42 43 42 41 47 54 57 58 56 56 54 55 56 57 57
54 55 54 55 56 55 56 55 56 56 57 58 58 58 57 57 58 59 57 57 58 57 58 57 56 41 40 40 42 40 40 43 56 58 57 56 55 55 56 53 50 50
51 53 55 55 56 55 56 55 55 56 57 58 57 57 57 57 59 59 58 58 58 57 56 57 54 36 38 38 39 39 40 39 57 57 55 54 51 49 49 49 49 50
40 42 47 49 51 52 53 54 56 56 55 57 57 57 56 58 56 58 57 57 57 56 54 53 52 36 37 38 38 39 38 51 56 50 48 46 48 49 48 49 49 49
37 38 40 42 43 45 46 49 52 55 57 56 57 56 55 56 56 56 56 55 54 52 51 50 50 40 36 38 38 38 40 54 49 46 46 46 48 49 48 54 52 52
38 35 38 39 39 40 43 45 48 50 53 54 55 56 56 54 54 54 53 52 51 49 48 47 47 44 37 38 39 39 45 52 45 43 44 45 46 48 50 49 47 46
40 40 39 39 39 40 43 45 45 46 47 49 49 49 49 49 49 48 49 48 48 47 47 45 46 46 37 38 38 40 42 53 43 39 43 45 45 45 49 49 45 43
41 41 41 41 40 42 44 43 43 44 46 46 46 44 43 44 44 44 45 44 44 44 43 42 41 48 46 37 38 39 39 51 50 42 44 45 44 46 48 48 46 43

ECMWFNIL_sfc_dewp_048.txt.gz
Dewpoint
61 61 60 59 59 59 58 59 59 59 60 59 57 57 58 58 57 59 60 58 58 57 58 59 59 58 57 56 55 51 53 55 54 54 53 54 55 55 54 53 55 56
61 61 59 59 59 57 59 60 60 60 59 59 58 58 58 58 57 56 56 57 57 58 58 58 59 57 55 55 56 55 54 54 53 52 54 54 54 55 55 55 54 53
62 62 60 60 58 59 59 61 61 60 59 58 58 58 58 59 58 59 57 55 55 57 56 55 56 56 56 56 55 54 54 54 53 53 54 53 55 54 55 56 54 53
61 63 61 59 58 58 59 60 60 59 59 57 57 58 57 58 59 58 56 54 56 57 58 58 57 55 53 55 56 55 54 53 53 55 55 54 53 54 55 54 53 52
62 62 60 59 58 58 59 58 58 59 58 58 58 58 57 59 58 55 57 57 56 55 56 56 57 57 56 53 53 54 55 54 54 53 53 52 53 54 54 55 55 55
62 59 57 57 58 58 58 57 56 57 59 59 58 58 59 58 56 55 55 54 55 54 55 56 56 56 55 56 57 55 55 53 54 54 53 53 54 54 49 54 52 51
61 62 60 56 57 58 57 57 57 55 58 59 57 59 59 58 56 54 52 53 52 52 52 56 56 56 57 57 56 55 56 55 52 48 45 49 52 52 50 51 49 50
62 62 63 59 58 58 56 56 57 56 58 57 57 58 57 55 54 57 55 53 51 50 53 52 54 55 57 55 52 56 56 57 55 52 52 52 51 49 51 51 52 48
61 60 61 62 57 56 55 55 58 58 58 58 58 57 58 57 56 57 56 54 54 53 51 52 53 54 58 55 55 55 54 55 55 54 53 52 52 50 47 50 51 52
61 60 60 61 58 56 56 57 56 57 56 57 56 55 54 57 57 53 54 55 54 52 52 53 54 57 56 53 52 54 54 54 55 55 53 53 52 50 46 51 52 52
61 61 61 59 60 56 57 57 54 54 54 53 57 53 52 54 53 52 53 53 55 51 51 52 53 54 55 56 57 57 55 56 55 53 55 54 54 54 53 52 53 53
62 61 61 60 60 59 58 57 54 54 53 54 54 53 54 54 52 51 49 50 51 51 51 51 52 55 54 54 55 57 58 57 56 57 56 55 56 55 53 54 54 53
60 58 59 60 60 61 59 56 55 56 54 53 55 54 56 56 54 54 55 53 50 55 54 53 53 54 57 57 56 55 57 56 57 58 57 57 57 56 55 56 55 54
60 60 62 62 61 60 62 58 56 57 57 56 58 55 56 54 53 53 57 57 57 55 55 57 55 54 55 56 56 57 59 58 58 58 58 57 58 58 57 56 56 55
60 60 59 57 58 59 60 59 58 59 59 55 58 57 59 55 55 55 56 54 54 57 56 58 59 58 57 57 58 59 59 58 59 56 56 56 56 58 58 57 57 57
59 58 58 58 60 58 58 58 58 59 58 57 58 58 59 59 58 58 56 54 56 58 59 58 58 59 56 49 45 54 57 58 60 57 58 57 57 58 57 57 57 59
58 57 57 58 59 57 57 57 58 59 59 58 60 60 59 60 60 58 57 57 56 57 56 56 57 57 50 41 42 43 54 58 59 58 58 57 57 56 56 57 58 59
59 58 57 58 57 57 57 58 58 58 58 58 58 58 58 59 59 58 58 57 57 57 58 58 56 53 45 43 42 42 44 53 57 58 57 56 57 56 58 58 58 58
58 58 57 57 57 57 57 58 57 57 58 58 57 59 59 59 58 59 58 58 57 57 58 58 57 51 46 44 42 42 41 49 56 59 58 58 57 56 56 57 57 56
57 55 56 57 58 57 59 57 57 58 58 58 58 59 59 58 58 58 58 57 58 57 57 56 56 51 46 44 42 41 40 46 55 58 58 56 55 55 56 56 56 54
52 54 56 57 57 57 58 57 57 57 57 58 58 57 57 57 57 57 57 57 58 58 56 56 57 48 43 42 41 41 40 41 54 57 58 58 56 56 57 57 56 56
45 52 56 54 54 55 56 55 56 57 57 58 57 57 57 58 58 57 57 56 56 57 56 56 55 40 40 40 39 40 39 49 54 56 57 56 56 55 56 55 54 53
41 42 46 47 47 51 51 55 57 57 57 57 57 57 57 57 56 57 57 57 57 56 56 55 55 40 37 38 38 38 41 51 55 56 54 53 52 53 51 49 49 51
42 41 42 44 45 45 48 53 53 56 57 57 57 56 57 57 57 56 56 57 55 55 55 54 54 45 37 38 39 38 44 53 54 52 49 49 51 51 49 46 45 47
42 44 44 45 44 46 49 49 51 53 54 56 56 56 56 56 55 55 54 55 55 55 53 53 51 46 38 39 38 39 41 48 52 49 49 48 49 50 48 46 42 41
43 44 45 44 44 45 47 48 47 48 53 54 53 49 49 52 52 51 51 51 52 52 52 50 50 49 42 38 39 39 39 46 50 49 47 48 47 48 47 45 42 39

ECMWFNIL_sfc_dewp_051.txt.gz
Dewpoint
56 55 55 55 55 56 54 55 56 55 55 53 52 53 54 53 53 55 55 53 53 53 54 53 52 52 52 51 52 51 52 52 51 51 52 52 51 51 51 50 51 49
57 56 56 56 56 55 55 55 55 55 52 52 53 53 53 53 53 51 51 53 54 55 55 55 52 51 51 51 51 50 50 51 51 54 51 52 52 51 50 51 50 50
58 56 56 55 54 55 54 54 56 54 53 53 53 52 52 51 51 53 53 53 53 50 49 50 51 51 49 50 51 51 49 49 50 51 52 50 50 50 50 48 48 48
58 56 56 55 54 54 55 55 55 54 53 52 52 53 53 53 54 53 53 54 49 50 52 53 52 50 51 51 49 48 48 49 51 51 50 51 53 52 50 50 50 50
57 58 57 54 54 55 55 54 54 52 52 52 53 53 54 54 51 49 50 52 53 53 52 51 51 51 50 50 50 50 51 52 51 51 51 50 50 51 52 52 52 51
59 58 55 54 54 54 53 54 53 53 53 52 52 54 54 53 51 52 52 51 51 51 50 51 51 49 48 50 51 49 48 48 49 50 49 48 49 50 50 50 49 49
58 56 55 55 54 54 53 53 53 54 53 53 54 54 54 53 53 52 51 52 51 52 51 52 51 51 53 53 51 50 50 50 49 48 48 49 49 49 50 49 48 47
59 57 55 55 54 54 53 53 52 53 54 53 53 54 53 54 52 53 52 51 50 51 53 53 52 52 52 50 51 51 51 51 48 49 49 47 47 46 47 47 46 46
59 59 57 55 54 54 54 54 53 54 54 53 54 53 54 54 52 53 53 51 51 52 52 52 53 53 51 51 51 50 51 50 50 46 45 45 46 47 45 47 48 49
59 59 58 55 54 54 54 56 56 55 55 54 54 53 53 54 54 53 53 52 52 51 51 52 54 54 52 51 53 53 51 50 49 49 51 50 48 47 47 49 48 47
59 58 58 56 54 54 56 55 55 54 54 54 53 51 52 54 53 52 52 53 53 51 52 52 53 53 52 51 53 53 52 53 52 50 51 52 50 48 53 49 49 47
59 59 58 57 56 56 55 54 54 53 53 54 53 50 51 53 52 50 52 52 53 51 51 52 51 53 53 53 54 54 53 52 52 53 53 54 52 51 52 52 52 52
57 57 57 56 57 57 56 55 53 52 52 52 54 50 50 52 51 49 51 52 51 52 51 53 54 55 54 54 55 56 54 54 55 55 55 56 56 55 55 55 55 55
58 57 58 57 57 57 57 56 57 55 52 53 55 53 53 54 50 50 53 53 54 55 55 55 54 54 55 55 56 56 57 56 56 55 55 55 56 56 56 56 55 55
57 57 57 56 56 56 56 56 57 57 57 57 56 54 55 53 51 52 54 55 56 56 56 56 56 56 56 56 56 56 57 56 55 55 55 55 55 56 55 56 55 55
57 57 58 58 57 56 56 56 56 56 56 57 57 57 57 57 57 56 56 56 56 55 55 56 56 55 52 49 51 54 56 57 55 55 55 55 55 54 53 54 55 56
56 56 58 58 56 55 54 55 56 56 55 56 56 56 56 57 57 56 56 56 55 54 53 54 55 55 42 40 41 46 54 56 55 55 54 55 54 54 53 53 53 56
57 57 58 57 56 55 55 56 56 55 55 55 55 55 55 55 56 56 55 55 55 54 53 53 54 51 41 40 41 42 49 55 55 55 54 54 54 54 53 54 54 55
58 57 57 57 57 57 56 56 55 55 55 55 54 55 55 56 55 55 55 55 55 54 54 53 53 49 43 40 40 40 43 51 56 55 55 53 54 54 54 55 54 54
58 57 56 56 57 56 56 56 55 55 55 55 54 54 54 54 53 54 54 54 54 54 54 54 53 52 43 41 40 39 39 46 54 55 54 55 55 54 55 55 55 54
54 55 55 55 55 56 55 55 55 54 54 53 53 53 53 52 53 52 53 53 53 53 52 53 54 50 44 41 40 40 39 43 51 53 54 54 54 54 54 55 54 54
54 53 52 54 55 55 55 55 54 53 52 53 52 52 52 52 52 51 52 52 52 52 51 50 52 44 41 41 40 39 39 47 51 52 53 53 53 53 54 54 55 54
45 45 45 44 46 50 53 53 53 53 52 52 53 51 52 52 52 51 52 52 51 51 51 52 52 45 39 40 40 39 42 49 51 52 53 52 52 50 48 47 48 52
43 43 43 43 43 45 48 51 52 53 54 53 52 52 52 53 52 51 51 52 51 51 53 52 52 48 39 40 39 39 44 50 51 52 51 50 49 46 45 45 48 52
41 43 42 42 42 43 44 45 47 50 51 52 52 52 52 51 53 52 50 50 51 52 53 53 52 50 41 39 39 38 43 49 51 50 47 49 47 45 43 43 42 44
40 42 41 41 42 42 43 44 45 45 47 51 52 53 53 53 52 52 51 52 52 52 52 53 52 49 42 38 39 39 40 46 47 46 46 48 46 43 42 40 39 39

ECMWFNIL_sfc_dewp_054.txt.gz
Dewpoint
54 53 54 54 53 53 55 55 54 52 52 52 53 52 53 52 54 54 53 53 52 52 52 52 52 52 52 52 52 51 51 52 52 51 51 52 51 51 50 49 51 54
54 54 54 54 54 54 55 55 54 52 52 52 53 53 52 53 53 53 52 53 53 52 52 51 51 51 51 51 51 50 50 50 51 52 50 49 50 50 49 49 49 51
54 54 54 53 54 54 55 55 54 52 52 53 53 53 53 52 51 51 52 52 52 51 50 50 49 49 50 50 50 50 49 49 49 49 49 48 48 47 48 48 48 48
54 54 54 54 54 54 55 55 53 52 53 53 52 52 52 52 51 51 52 54 49 49 50 49 49 49 49 49 48 48 48 49 49 50 50 50 50 49 50 49 48 47
54 55 54 54 54 55 55 53 52 52 52 52 52 52 53 52 51 51 50 49 50 50 50 49 49 49 49 48 48 48 49 49 49 50 49 49 49 51 49 49 49 49
55 55 54 54 54 55 54 53 52 52 52 52 51 53 52 51 50 50 50 51 51 51 50 49 49 49 49 49 49 49 49 49 48 49 49 49 48 49 49 48 47 47
56 54 54 54 54 54 53 52 52 52 52 52 53 52 51 49 50 50 51 51 50 50 49 49 48 48 49 49 48 48 48 48 49 49 49 48 49 48 48 47 47 47
55 54 54 54 54 53 53 53 52 52 53 53 52 52 50 50 51 51 51 51 50 51 50 49 49 50 50 49 48 48 48 49 48 49 48 47 47 47 47 48 47 46
56 55 54 54 53 53 53 55 53 53 53 52 52 52 52 51 51 51 51 50 51 52 52 51 51 51 50 50 49 49 48 48 49 47 47 46 46 45 45 47 47 47
57 57 56 54 54 55 54 54 54 53 53 53 52 53 52 52 51 51 50 50 51 51 51 51 52 50 50 50 50 49 48 48 46 46 46 46 46 45 47 47 46 46
57 57 55 55 54 56 55 54 53 53 53 52 52 52 53 53 52 52 50 50 51 51 51 52 52 50 50 51 51 49 48 47 47 48 48 47 47 47 51 47 47 46
57 57 56 55 56 55 55 55 54 54 53 53 51 51 53 53 52 52 51 50 50 50 51 52 52 50 49 51 52 50 50 50 50 50 50 49 49 50 49 48 47 47
56 56 56 56 56 56 55 54 53 53 53 52 51 50 50 52 51 50 52 51 50 50 51 52 52 51 51 52 52 51 50 51 53 53 53 53 52 52 52 52 51 52
56 57 57 56 56 56 56 56 55 52 52 53 52 49 50 50 51 49 51 51 51 51 51 53 53 53 53 53 54 54 53 53 54 54 54 53 53 52 53 52 52 52
55 56 56 56 56 56 55 55 56 55 56 56 54 52 52 52 52 51 54 54 54 54 54 54 54 54 55 56 56 55 55 54 54 54 54 54 53 53 53 52 53 52
55 56 56 56 55 55 55 55 55 55 56 55 55 55 55 55 53 54 54 55 54 54 54 54 54 54 54 52 53 55 55 55 54 53 53 53 53 52 52 53 53 53
55 55 56 55 55 54 53 54 55 54 55 54 54 54 54 54 55 54 54 54 54 54 53 53 53 53 44 44 48 50 54 54 53 53 52 52 52 52 52 51 52 54
55 55 55 54 54 54 54 55 54 53 54 53 53 54 54 54 54 54 54 54 53 53 53 54 53 48 40 43 45 47 51 54 53 53 53 52 52 52 52 51 52 53
55 55 54 53 54 54 54 54 53 53 53 53 53 53 53 54 53 53 52 52 53 53 53 52 53 41 40 41 42 42 45 51 53 53 53 52 52 52 52 52 52 52
56 55 54 54 53 53 53 53 52 51 51 51 52 52 52 52 51 52 52 52 52 52 50 50 51 43 40 41 42 42 41 46 54 53 53 53 53 53 53 53 53 53
54 53 53 53 53 53 53 52 52 51 51 51 50 52 52 51 52 51 52 51 52 51 50 51 53 42 40 41 41 41 40 42 51 53 53 53 53 53 53 53 53 53
45 46 47 49 52 52 51 51 50 50 50 51 50 49 49 50 50 50 51 51 50 50 50 49 50 40 40 40 40 40 40 46 49 50 51 52 52 53 53 53 53 53
43 43 43 43 46 50 51 51 51 50 50 50 51 50 51 51 52 51 51 51 51 50 50 51 49 42 40 40 40 39 40 48 50 49 49 50 52 52 52 52 53 53
42 41 41 42 42 43 45 47 49 49 49 50 51 50 50 49 50 51 50 51 51 51 52 52 52 45 39 40 40 39 43 49 50 50 49 50 49 46 46 48 51 52
38 38 38 38 39 41 43 43 43 44 44 49 50 50 50 49 49 50 50 50 50 51 52 52 51 49 40 39 40 40 42 47 49 50 49 49 46 44 42 43 45 51
38 38 38 38 37 37 40 42 44 42 42 43 42 46 48 49 48 50 50 50 49 50 51 51 51 50 45 38 40 40 40 47 49 49 48 47 45 44 43 41 41 45

ECMWFNIL_sfc_dewp_057.txt.gz
Dewpoint
53 53 53 53 54 55 54 53 53 52 51 51 52 51 52 52 53 52 52 52 52 53 52 51 52 52 52 51 51 51 51 51 51 51 53 54 53 54 55 54 54 55
53 54 54 54 54 55 54 53 53 52 52 52 52 52 51 52 52 51 52 52 52 51 50 50 51 51 51 50 50 50 49 50 50 52 51 50 49 50 51 52 54 54
54 54 53 53 54 55 54 53 53 52 52 52 52 52 53 52 51 50 51 51 51 50 50 50 50 50 50 49 49 49 49 48 48 48 49 48 48 48 49 50 52 54
54 53 53 54 55 55 54 53 53 53 53 52 52 53 53 52 51 51 52 53 49 48 48 48 49 49 49 48 48 48 47 48 48 48 49 49 49 48 48 49 49 49
54 54 54 54 55 55 54 53 52 53 52 52 52 52 53 51 50 50 49 48 48 48 48 48 48 48 48 48 48 48 49 48 48 48 49 49 48 48 48 48 47 47
54 54 54 55 55 55 53 52 52 52 52 51 51 52 51 51 50 49 49 49 49 49 48 48 48 48 48 47 48 48 48 48 47 48 48 48 47 47 48 47 46 46
54 54 54 55 55 54 52 52 52 52 51 51 52 51 50 49 50 50 50 50 49 49 48 47 47 47 48 47 48 46 47 47 47 48 48 46 47 46 47 46 47 46
54 54 54 54 54 53 52 52 52 52 52 52 51 50 49 49 50 50 51 50 49 49 48 47 47 48 48 47 47 46 46 48 48 47 47 46 45 45 45 47 46 47
54 54 54 53 53 52 52 52 52 52 52 51 51 50 50 50 50 50 51 50 50 50 49 48 48 48 48 47 47 46 46 46 48 46 46 45 45 44 45 46 46 47
55 55 54 53 53 53 52 52 52 52 53 52 51 50 50 50 50 50 50 49 50 50 49 49 49 49 48 48 48 47 47 47 46 46 46 46 45 45 46 46 46 46
55 55 54 54 54 54 53 53 53 53 53 52 51 50 50 51 51 51 50 50 50 50 50 49 50 49 49 48 48 48 47 47 46 46 46 46 46 46 52 46 47 45
55 55 55 55 55 55 54 54 54 53 53 52 51 50 51 51 50 50 49 49 50 51 50 50 50 49 49 49 49 48 47 46 47 47 47 46 46 47 47 47 46 46
55 55 56 55 55 55 54 54 54 53 53 52 52 51 51 51 50 50 50 49 49 50 50 50 51 49 49 49 50 48 48 49 49 50 49 48 48 49 49 48 48 48
56 56 56 55 55 55 55 55 54 53 52 52 52 51 51 51 51 50 49 49 49 49 50 50 50 49 48 49 50 49 49 49 50 50 50 50 50 50 51 51 50 50
56 56 56 56 55 55 55 55 55 53 53 52 51 50 51 50 51 50 50 50 49 49 49 50 50 50 50 50 51 51 50 51 51 50 50 50 51 52 51 51 52 51
54 55 55 56 55 55 55 54 54 54 54 53 53 52 50 50 51 50 51 51 51 50 50 51 51 51 52 51 51 52 52 52 51 51 52 52 52 51 52 52 52 52
54 54 54 54 53 54 54 54 54 53 52 52 53 53 52 52 52 52 51 52 52 52 52 52 52 53 49 47 46 48 53 52 53 52 52 52 52 52 52 51 50 52
54 54 54 53 53 53 54 54 53 53 53 52 51 52 53 52 51 51 52 52 52 52 52 53 53 51 45 44 45 46 50 52 52 52 52 51 51 51 51 51 51 51
55 54 54 54 54 54 53 52 52 52 52 52 52 51 51 52 51 52 51 51 51 51 50 51 52 45 41 43 43 43 46 50 52 52 52 52 52 52 51 51 51 50
55 54 53 53 53 53 53 52 51 51 50 50 50 51 51 51 51 51 51 51 51 51 49 49 51 44 40 42 42 42 43 47 53 53 53 53 52 52 52 52 52 51
46 50 53 53 53 52 50 50 50 50 49 48 49 51 51 50 50 51 51 51 51 49 49 51 51 44 39 40 41 41 41 42 51 52 52 52 52 52 52 52 52 52
40 41 44 49 52 51 50 50 50 50 50 50 49 48 47 48 48 49 48 49 50 49 49 49 49 42 41 40 40 40 40 46 48 49 49 51 51 51 51 52 51 51
38 38 39 39 41 43 44 46 46 46 48 48 48 47 49 49 49 49 49 49 50 49 49 46 47 47 40 40 40 40 42 47 48 48 48 49 51 51 51 51 51 51
38 38 38 37 37 39 40 41 43 43 44 47 48 47 47 47 48 47 47 49 49 50 49 49 48 47 42 40 40 39 42 49 50 49 49 48 49 49 49 49 50 52
38 38 37 36 36 37 38 38 39 40 41 42 45 46 46 46 46 46 46 46 47 48 51 49 48 48 42 40 40 40 42 47 49 49 49 48 48 48 45 45 45 49
37 38 38 37 37 37 37 37 38 38 38 39 40 41 40 42 44 45 46 46 46 46 47 48 48 48 46 40 41 40 40 46 49 49 49 49 47 48 48 44 42 44

ECMWFNIL_sfc_dewp_060.txt.gz
Dewpoint
55 55 55 55 55 54 54 53 53 53 52 52 53 52 52 53 54 53 53 53 54 53 53 53 54 53 53 52 53 53 53 53 54 54 56 56 56 56 57 56 57 57
54 55 56 55 55 55 54 54 53 52 52 53 53 53 53 53 52 53 53 54 53 52 52 52 52 52 52 51 51 52 52 52 53 54 55 55 54 55 56 56 56 56
54 55 55 54 54 54 53 53 53 52 52 53 53 53 53 52 51 52 53 52 52 51 51 51 51 51 51 51 50 50 50 51 51 51 52 50 51 53 53 55 56 56
54 54 54 55 54 54 53 53 52 53 53 53 53 53 53 53 52 52 53 55 51 50 50 50 51 50 50 49 50 50 49 50 49 50 50 51 52 51 51 53 54 55
53 53 54 55 55 54 53 52 52 52 52 52 52 53 53 52 51 50 50 50 50 49 50 49 49 49 49 50 50 50 51 49 50 50 50 50 50 51 50 52 53 54
53 54 54 55 55 54 53 52 52 52 52 52 52 53 51 51 50 49 49 49 49 49 49 49 48 49 49 49 50 49 49 49 49 49 48 48 48 49 48 49 51 52
54 54 54 55 55 53 53 52 53 53 52 52 52 51 51 50 50 49 49 50 49 50 48 48 48 48 49 49 49 49 49 49 49 49 48 48 49 48 48 48 49 49
54 54 55 55 54 53 52 52 52 52 52 52 51 51 50 50 50 50 50 50 49 48 48 48 48 48 48 49 48 49 49 49 48 48 47 47 47 47 48 48 48 48
54 54 55 54 53 53 52 52 52 52 53 52 51 51 51 50 50 50 50 50 49 49 48 48 49 49 48 48 48 48 48 48 49 48 48 47 47 47 47 47 48 48
54 54 54 54 53 53 52 52 52 52 53 52 51 51 50 51 51 50 50 50 50 50 49 49 49 50 49 48 48 48 48 48 48 48 48 47 47 47 47 47 47 48
54 55 54 54 53 54 53 53 52 52 52 52 52 51 50 51 51 50 50 50 50 50 49 49 50 50 49 49 49 49 48 48 48 47 48 47 47 48 51 48 49 48
54 54 54 53 54 53 53 53 53 52 52 53 52 51 51 51 50 50 50 50 50 50 50 50 50 50 49 49 49 49 48 48 49 48 48 47 47 48 49 49 49 48
54 54 54 54 54 54 54 54 54 53 53 53 53 52 51 50 50 50 51 50 50 51 50 51 51 50 50 50 50 49 48 48 50 50 49 49 49 50 50 49 49 49
55 55 54 54 54 52 52 53 54 54 53 53 53 52 52 51 50 50 50 50 50 51 50 51 50 50 49 50 50 49 49 50 51 51 51 51 52 52 52 52 51 51
55 55 55 54 53 53 53 53 53 53 54 53 53 52 52 52 51 51 50 50 50 50 51 51 51 50 50 51 51 50 50 51 52 52 52 51 52 52 53 52 52 52
54 55 55 54 53 53 53 53 53 53 53 53 53 52 51 52 51 51 51 50 50 51 51 51 51 51 52 49 50 51 51 51 52 52 52 51 52 52 53 53 52 51
53 54 54 53 53 53 53 53 53 53 53 53 53 53 52 52 51 51 51 51 51 51 51 51 51 52 48 46 46 48 51 52 52 52 52 52 52 51 51 52 52 51
53 53 53 53 53 53 53 53 52 52 52 52 51 52 52 52 51 51 52 52 52 52 52 52 52 50 46 44 43 44 48 52 52 52 52 52 53 53 53 52 52 52
54 53 53 53 53 53 52 52 52 52 52 52 52 51 51 51 51 51 51 51 51 52 52 52 52 46 43 42 42 41 42 50 53 53 53 53 53 52 52 52 52 52
54 53 53 52 52 52 51 51 51 51 51 50 51 51 50 50 50 50 50 50 51 50 49 50 51 45 42 41 41 40 40 44 53 52 52 53 53 52 53 53 53 52
50 52 52 52 51 51 50 50 50 49 50 49 49 50 50 49 49 49 50 51 51 49 49 50 51 42 41 40 40 40 40 43 51 52 52 52 53 54 53 53 53 53
40 41 42 43 45 46 46 47 48 48 49 48 48 48 47 47 47 48 47 49 50 49 49 49 49 42 42 41 40 39 41 48 50 51 51 51 52 53 53 53 53 53
38 38 39 40 40 39 41 43 44 46 48 48 49 47 48 48 48 48 48 49 50 49 48 47 49 48 43 41 40 39 43 46 48 49 49 50 51 52 52 52 52 52
38 38 39 39 38 40 38 39 41 41 42 45 47 47 48 48 48 49 48 48 49 50 49 49 49 49 43 43 41 40 44 50 50 50 50 50 50 50 50 50 51 51
38 38 37 37 39 40 40 39 38 38 40 41 42 42 43 44 46 46 46 47 47 47 50 50 49 48 44 43 42 41 43 48 49 50 50 50 50 50 49 49 49 50
37 37 37 37 37 38 39 40 40 40 38 38 39 40 41 42 43 43 43 44 44 45 46 47 48 48 47 42 42 41 41 47 49 49 49 50 50 50 50 50 48 48

ECMWFNIL_sfc_dewp_063.txt.gz
Dewpoint
62 61 60 60 61 61 61 61 60 60 60 59 58 59 59 61 61 62 62 62 63 63 63 63 63 63 63 63 64 62 62 63 63 63 63 63 62 62 62 62 63 62
61 61 60 60 60 60 60 61 61 60 60 60 60 59 60 60 61 61 61 61 61 61 61 61 61 61 61 61 62 62 62 63 62 60 63 63 63 63 63 63 62 62
61 60 60 59 59 59 60 61 61 61 60 59 60 60 59 60 60 61 61 61 60 60 59 59 58 58 58 58 60 61 61 62 62 61 62 61 62 62 62 62 61 63
60 60 59 59 59 59 59 59 59 59 59 58 59 59 58 59 60 60 60 59 60 59 58 57 57 56 55 56 58 57 58 58 58 60 60 60 60 61 62 62 62 61
59 59 59 59 59 59 59 58 57 58 59 59 59 58 58 59 59 58 59 59 59 57 57 56 56 56 56 56 56 56 56 55 56 57 57 57 59 60 61 62 62 61
59 58 58 58 58 58 58 58 57 58 58 59 59 57 58 58 57 57 57 57 57 56 56 56 55 55 56 55 56 56 55 54 55 55 55 56 56 58 57 61 61 61
58 58 59 58 58 58 58 58 58 58 58 59 57 57 57 57 56 56 55 55 55 54 54 55 55 55 56 56 54 54 55 54 53 52 51 52 54 56 56 59 59 58
58 58 59 58 59 59 59 57 58 58 59 57 58 56 56 55 55 56 55 54 53 52 53 52 53 53 55 54 52 55 55 55 54 52 51 51 54 52 56 57 59 57
57 58 58 58 58 58 58 57 58 58 57 58 57 56 56 55 55 55 54 53 52 53 51 52 52 53 55 54 54 53 52 54 55 54 53 53 52 52 50 55 57 57
57 58 58 58 58 58 58 58 57 57 57 57 56 55 54 56 56 54 53 53 53 51 51 51 52 53 52 51 51 51 51 51 52 53 52 52 51 48 48 53 55 56
58 58 58 58 58 58 58 58 57 57 56 55 56 55 55 55 55 55 53 52 53 49 49 50 51 51 51 51 54 55 53 53 52 51 52 52 53 52 54 51 53 54
59 59 59 58 58 58 57 57 57 56 56 56 55 54 55 55 55 54 52 51 50 49 49 49 50 51 49 50 51 53 54 54 54 53 52 51 53 52 51 54 54 52
58 58 59 58 58 58 58 56 55 56 54 54 54 54 54 54 54 53 54 52 52 53 51 51 51 52 53 54 52 52 52 53 54 54 54 54 53 52 52 53 52 52
58 58 58 58 57 56 56 57 57 57 56 55 54 54 53 53 53 53 54 53 54 53 54 55 54 53 52 53 52 53 54 53 54 55 53 54 55 54 55 53 54 53
57 56 56 55 54 54 54 56 56 58 57 57 56 55 55 53 53 53 53 52 52 54 53 55 56 56 56 57 56 55 56 55 54 52 54 54 54 54 57 56 55 56
54 55 56 56 56 55 55 55 56 57 58 57 56 57 57 56 54 54 52 52 52 53 55 57 58 58 55 50 51 54 55 53 56 56 55 55 55 56 57 57 57 58
55 55 55 56 55 56 56 56 56 57 57 57 58 58 57 56 57 54 54 54 53 53 55 57 58 56 45 44 45 47 54 56 55 56 57 56 56 55 55 57 58 57
56 55 54 55 55 54 53 54 56 57 57 57 58 58 56 56 56 57 56 56 56 55 57 57 57 43 40 40 41 41 44 57 56 56 57 56 56 55 56 56 57 58
55 56 56 55 55 55 55 57 57 57 57 57 57 56 56 57 56 56 57 57 57 55 56 57 57 41 40 40 40 40 41 49 56 57 56 57 57 57 57 57 57 58
54 54 54 55 55 56 56 56 56 56 56 56 56 55 56 56 57 58 58 57 58 58 57 57 56 43 40 39 39 39 40 49 57 58 57 57 56 57 58 58 58 57
47 48 49 50 52 54 54 54 54 55 55 55 55 57 56 56 57 56 56 56 56 56 57 57 54 39 39 39 39 40 41 47 58 58 57 57 58 58 58 58 58 58
41 42 42 43 45 46 48 50 52 52 53 54 55 55 55 55 55 55 56 56 57 57 58 57 51 39 39 39 39 40 40 56 58 58 58 58 57 58 57 57 57 57
40 40 41 41 41 41 42 43 45 46 48 52 53 53 53 53 52 53 53 55 55 56 57 57 53 42 39 39 40 39 44 56 56 55 56 57 57 57 57 57 58 57
39 39 40 41 41 41 41 43 43 44 45 47 49 49 48 49 50 49 49 50 51 52 51 54 53 44 40 40 41 40 45 55 56 56 56 57 56 57 56 56 56 53
39 39 39 40 40 42 44 43 43 42 43 44 45 46 47 47 48 49 48 48 49 50 48 51 51 46 39 39 40 40 47 53 54 55 55 56 56 56 56 56 56 54
39 39 39 39 39 40 41 42 44 45 45 44 43 41 41 41 43 43 44 45 46 48 49 49 48 47 40 38 39 40 40 50 52 53 54 54 54 53 53 54 55 55

ECMWFNIL_sfc_dewp_069.txt.gz
Dewpoint
64 65 65 63 62 61 60 59 58 58 58 58 57 59 57 59 59 58 59 59 59 59 59 59 59 60 59 60 60 58 61 62 62 62 63 62 64 64 63 63 63 63
64 65 64 63 61 60 60 60 59 58 58 59 58 58 59 59 59 59 58 58 58 58 58 59 59 59 59 58 60 59 58 63 63 58 63 63 63 63 63 63 64 63
64 64 63 61 61 61 60 60 60 59 58 58 60 59 59 59 59 59 59 58 57 58 58 58 60 59 59 58 59 59 58 61 59 59 63 61 62 62 62 64 64 63
64 64 62 61 61 60 60 59 58 59 59 58 59 58 58 59 59 59 59 57 57 57 58 59 59 58 56 58 59 57 58 58 58 60 61 63 63 61 62 62 62 62
64 62 60 59 58 59 60 58 58 58 58 58 59 59 57 59 59 57 58 57 56 57 57 58 57 57 57 58 57 58 59 58 59 59 58 60 62 62 61 61 61 61
63 60 59 58 58 59 58 57 55 56 57 59 59 58 58 58 55 56 56 56 55 55 55 56 56 56 56 57 58 57 56 56 57 57 56 57 60 61 59 60 60 59
63 60 60 58 58 57 58 57 56 57 57 58 57 57 58 57 56 56 55 55 55 53 51 55 56 56 56 57 56 54 54 55 55 54 54 55 59 60 59 59 59 59
62 61 59 58 58 57 57 56 56 57 58 57 57 57 56 54 55 56 56 55 52 50 51 52 54 54 54 55 53 54 55 53 53 53 54 56 60 58 58 57 60 58
61 61 60 59 58 58 58 56 57 57 56 57 56 57 56 55 55 56 55 54 51 52 50 51 53 53 54 53 54 53 51 52 53 54 55 57 59 58 56 57 57 59
62 61 60 59 59 58 58 58 56 58 55 55 55 55 53 54 54 54 55 53 52 49 49 50 52 52 52 51 50 50 50 51 52 53 54 55 57 57 56 58 58 58
63 60 60 59 59 59 59 57 58 56 56 54 55 53 52 54 53 54 54 52 51 47 47 49 51 51 49 49 50 51 50 51 51 50 52 52 54 55 58 55 56 56
63 61 59 58 58 58 58 58 57 56 55 57 52 51 52 53 53 54 51 49 47 45 45 45 47 48 47 48 49 51 52 51 52 52 52 51 52 53 53 54 54 52
63 61 57 57 58 58 58 57 55 54 52 51 50 51 51 53 53 51 51 47 46 46 44 45 47 48 49 50 50 50 50 50 52 52 52 52 51 51 52 53 53 53
60 62 58 57 57 57 56 57 55 54 52 51 51 50 50 51 51 50 50 47 47 45 45 47 47 48 48 49 48 50 51 51 51 52 51 51 52 51 52 51 52 52
60 61 62 58 56 59 56 56 56 54 53 51 51 51 52 51 51 51 50 48 46 48 46 48 49 51 52 54 50 50 51 51 50 48 50 50 50 50 50 50 50 51
59 59 59 60 56 55 55 56 55 55 53 51 50 51 51 51 50 51 50 50 50 49 49 51 52 58 48 43 45 54 51 47 51 51 50 50 50 50 50 49 50 52
58 59 59 60 58 54 55 55 55 54 52 51 52 52 53 52 51 49 50 50 49 50 52 54 58 54 42 40 41 42 52 54 51 51 50 50 50 50 49 50 50 50
59 59 58 58 57 56 58 56 55 54 52 52 52 52 52 54 53 53 53 52 51 51 53 57 54 42 40 41 41 41 43 52 55 51 51 50 50 49 49 48 48 49
59 58 58 58 57 57 57 57 57 58 53 52 54 55 55 55 55 55 55 55 54 57 57 54 52 41 40 40 41 40 40 46 53 53 50 49 49 49 48 49 50 50
58 58 58 58 57 57 58 59 58 58 58 58 58 58 58 58 58 58 57 57 58 57 54 51 48 42 39 40 40 40 39 42 54 56 53 49 47 48 50 50 51 53
56 55 55 56 58 59 58 58 59 59 60 60 60 60 58 57 57 57 58 57 57 54 52 50 46 39 39 39 39 39 39 42 56 57 54 53 53 53 54 55 56 56
55 54 54 55 57 57 58 58 59 59 59 60 59 59 59 60 60 59 58 57 58 54 53 50 46 38 38 39 39 39 39 55 57 56 54 52 52 54 56 57 57 57
53 55 57 55 55 55 56 57 58 59 60 61 60 59 59 58 57 56 57 57 57 55 52 49 47 40 38 38 39 38 46 57 59 55 53 54 56 55 56 58 59 58
48 48 50 52 51 52 53 53 56 58 59 60 59 58 56 55 55 53 53 53 53 51 49 47 45 41 38 38 39 38 41 55 57 55 55 55 55 56 56 58 56 53
46 47 47 48 48 50 52 51 53 53 52 53 53 52 53 52 51 51 51 52 53 51 48 46 44 42 38 37 38 38 43 53 55 52 53 57 55 59 57 56 57 50
44 44 45 45 45 47 47 48 49 48 48 49 49 49 53 53 52 50 50 50 49 49 50 48 45 42 39 37 38 38 38 47 54 52 53 53 53 51 50 50 55 53

ECMWFNIL_sfc_dewp_072.txt.gz
Dewpoint
65 65 65 64 64 65 63 62 62 62 63 62 62 61 63 64 62 65 64 65 64 63 64 64 64 64 63 64 62 61 65 64 65 65 65 64 64 64 64 64 63 63
65 65 65 64 64 63 63 63 63 62 64 63 62 63 63 62 63 63 63 63 63 63 63 63 63 63 63 62 64 64 63 65 66 63 65 64 65 65 64 64 64 64
65 65 64 63 62 62 62 62 64 63 63 62 62 63 63 62 64 63 62 61 62 62 64 64 64 64 63 62 63 65 63 65 62 61 62 63 64 64 64 64 64 63
64 64 63 63 62 61 62 63 63 64 63 63 61 63 61 61 63 62 63 61 61 62 64 63 63 63 61 61 63 63 61 62 63 64 64 64 65 63 63 64 64 63
64 63 63 62 62 62 62 61 61 63 61 63 62 62 60 62 63 61 63 62 60 61 63 63 63 62 61 62 62 62 62 62 63 63 62 64 63 63 63 64 63 62
64 62 61 61 62 62 61 60 60 61 61 62 62 60 61 61 61 59 61 60 59 59 61 61 61 61 62 60 62 61 62 61 62 62 60 61 61 62 60 62 62 62
62 61 61 61 61 61 60 59 60 60 62 62 60 62 61 60 59 58 57 60 57 57 57 61 60 61 61 61 61 61 61 60 60 60 58 60 62 62 59 60 60 60
62 61 61 60 61 60 59 60 59 61 61 60 61 61 61 59 57 61 58 59 55 54 58 57 59 58 60 61 60 59 59 61 60 59 58 59 61 60 61 59 61 60
62 61 60 61 60 59 59 58 60 60 59 61 61 59 61 60 58 60 58 58 55 56 55 58 58 57 60 61 59 59 58 60 59 60 60 61 61 60 58 59 60 61
62 60 61 60 60 60 59 59 59 59 59 59 59 59 58 62 59 57 59 60 57 54 56 56 57 59 59 55 56 57 57 56 57 59 60 60 61 60 57 58 59 60
63 62 59 59 60 60 59 59 60 59 58 57 59 59 58 61 58 60 57 57 57 53 53 55 56 55 57 56 58 58 57 58 57 56 59 59 60 60 60 59 60 61
63 63 59 59 60 59 59 59 59 59 58 59 56 55 57 60 58 60 54 52 52 51 53 55 54 56 54 54 53 57 59 58 59 58 57 57 58 57 58 59 59 59
62 61 59 60 59 59 58 57 57 57 57 56 56 59 57 60 57 57 60 52 52 53 52 55 54 56 57 57 55 56 56 57 57 58 58 57 59 57 57 57 56 57
61 62 61 61 59 59 58 58 57 56 56 55 56 55 58 58 58 55 58 55 57 51 52 56 55 54 53 56 56 55 58 58 58 58 57 56 58 56 57 58 57 57
61 60 60 60 57 58 58 56 55 56 55 55 55 56 59 58 56 53 55 54 50 55 51 54 54 52 50 50 54 56 59 58 57 56 57 57 56 57 57 57 57 57
60 60 60 60 60 59 58 56 56 56 55 54 53 55 58 57 56 56 56 51 52 52 56 55 54 50 45 42 44 51 55 52 58 58 56 56 56 56 56 56 55 53
59 59 59 60 59 59 59 57 55 54 54 53 55 56 56 55 56 56 55 54 53 55 55 54 50 46 41 40 40 42 52 56 58 58 58 56 57 55 56 56 56 54
58 58 58 59 59 59 59 57 55 54 54 54 55 55 56 57 57 56 57 57 56 54 54 53 50 43 40 41 41 40 43 54 55 55 59 57 56 56 56 55 55 55
57 56 56 57 58 58 58 58 58 56 55 55 56 58 58 58 58 58 58 57 55 53 52 51 49 41 40 40 41 40 39 48 54 57 56 56 55 55 56 56 54 56
57 56 56 57 57 57 57 58 58 58 58 58 58 58 58 58 58 58 58 55 54 53 51 49 46 42 39 40 40 40 40 44 56 57 58 57 56 55 57 57 56 56
57 57 56 56 55 55 56 57 58 58 58 58 58 58 58 58 58 58 56 54 53 52 50 48 45 38 39 39 40 41 40 46 56 59 58 57 56 57 57 57 58 58
57 56 56 56 56 56 56 56 57 57 56 57 57 58 58 58 58 58 57 55 54 52 50 47 44 38 38 39 39 39 43 56 58 59 58 57 55 58 58 59 58 58
56 57 57 56 56 56 57 58 58 58 58 58 57 57 56 55 54 55 56 54 51 50 48 45 43 39 38 38 38 38 47 56 58 58 57 57 56 56 57 54 55 57
54 54 54 54 54 54 54 54 55 55 56 57 57 57 56 55 54 53 51 49 47 46 45 44 43 40 37 38 38 38 42 54 56 56 56 57 57 57 57 52 49 50
53 53 53 53 53 52 52 52 53 53 53 53 54 55 54 53 51 50 50 50 49 47 46 44 42 41 38 38 38 39 44 52 53 53 54 55 56 57 57 52 48 45
50 48 49 50 51 50 49 49 51 52 51 50 50 51 52 51 50 51 50 49 49 50 48 45 43 41 39 37 38 40 42 48 48 48 49 51 51 52 56 53 49 44

ECMWFNIL_sfc_dewp_075.txt.gz
Dewpoint
63 63 63 63 62 62 62 62 61 61 61 61 61 61 61 61 61 60 60 62 62 61 61 61 62 62 63 63 62 63 63 63 63 63 63 63 62 62 62 62 61 61
62 62 62 62 62 61 61 61 61 61 61 60 60 61 61 61 61 61 61 59 60 61 61 60 61 61 62 61 61 62 62 63 63 64 63 62 62 63 62 61 61 61
62 62 62 62 62 61 61 60 61 61 59 59 60 60 60 60 59 58 58 58 58 59 60 60 60 60 61 60 61 61 62 62 62 63 63 63 62 62 62 62 61 61
62 62 62 61 61 61 60 60 61 61 60 60 59 59 60 60 58 57 60 60 58 59 60 60 59 60 60 60 61 61 61 61 61 61 61 62 62 62 62 61 61 61
63 62 62 61 61 60 60 60 60 60 59 60 59 59 59 58 58 59 58 57 57 58 58 58 59 60 59 59 60 60 59 59 61 62 61 61 61 62 62 62 61 60
62 61 61 61 60 60 60 60 60 59 59 59 58 59 59 58 58 58 57 57 57 58 58 58 58 58 59 59 58 59 59 58 60 61 61 61 61 61 63 62 61 60
62 61 61 61 60 60 60 59 60 60 59 58 58 58 58 57 57 57 56 55 55 57 57 57 58 58 58 58 58 58 59 58 59 59 60 60 61 61 62 61 61 60
62 61 61 60 60 60 59 59 59 59 58 58 58 57 57 57 56 57 56 55 55 55 57 58 57 56 57 58 58 57 57 58 57 57 58 59 60 59 60 60 60 60
61 60 60 60 59 59 59 59 59 58 59 58 57 57 58 58 57 57 57 54 54 55 56 56 56 55 56 57 55 54 56 57 58 58 58 59 58 59 59 60 59 59
61 61 60 60 58 58 58 58 58 58 58 57 57 57 58 58 57 57 57 54 54 54 55 56 56 56 56 54 55 56 55 56 57 57 58 59 58 58 59 59 59 59
60 60 60 59 58 58 59 59 57 57 58 57 57 57 58 57 56 57 56 54 54 54 54 55 54 55 54 54 56 55 55 55 56 57 58 59 59 59 61 59 59 59
59 60 59 59 58 57 58 57 57 57 57 57 56 56 56 56 56 56 54 52 52 52 53 54 53 54 54 52 52 55 55 56 56 57 57 57 58 59 59 58 58 58
59 60 59 60 59 57 57 57 57 56 56 55 55 55 56 54 56 55 52 50 52 52 53 53 53 53 53 52 54 54 54 55 55 56 56 56 57 57 58 58 58 58
58 59 59 60 58 57 56 55 55 54 54 55 55 54 55 55 56 52 50 51 52 52 51 50 49 48 49 51 54 54 54 54 55 55 55 56 56 57 57 57 57 57
59 58 58 58 58 57 55 55 55 54 54 54 53 54 57 56 54 52 52 53 52 51 50 49 48 47 47 47 52 54 55 53 54 53 54 54 55 56 56 55 53 53
59 58 59 58 58 56 54 54 55 54 54 52 53 56 55 53 52 53 52 52 50 50 49 49 48 47 45 43 45 53 54 55 55 51 52 53 51 53 52 51 50 51
58 58 59 58 58 56 56 56 53 53 52 54 56 56 56 55 55 54 53 52 51 49 48 48 47 45 42 40 41 46 53 53 53 55 54 51 50 52 52 50 49 49
58 57 57 57 57 56 54 53 54 54 55 56 56 57 56 55 54 53 52 52 51 50 49 48 45 42 39 40 41 42 47 53 54 54 54 55 53 53 53 53 54 55
57 56 56 56 56 57 56 55 56 56 56 56 56 57 56 54 53 52 52 51 50 48 48 47 46 40 39 40 41 41 43 52 54 55 54 54 54 54 54 54 54 55
56 55 54 55 55 56 57 57 57 56 56 57 57 57 56 54 53 52 51 50 49 48 47 45 44 41 39 40 40 41 44 51 57 56 55 56 55 55 55 55 55 54
55 54 55 55 55 55 55 55 56 56 56 56 56 56 55 54 52 51 51 50 49 48 46 44 41 38 39 39 40 41 43 52 57 56 56 57 57 56 56 56 56 56
55 54 54 54 54 54 55 55 55 55 55 55 55 55 55 54 53 51 49 48 47 45 43 42 41 38 38 39 39 40 48 56 57 56 55 55 55 56 56 57 57 57
55 55 55 54 54 55 55 55 55 55 55 55 54 53 52 51 50 49 47 45 44 43 42 41 40 39 38 39 39 40 51 56 56 55 55 55 54 52 52 52 54 56
53 53 53 53 53 54 54 53 54 54 54 54 53 52 51 50 48 47 46 44 42 41 41 39 39 39 38 39 41 43 48 54 55 55 55 54 51 50 48 45 46 49
52 52 52 52 52 52 52 52 53 53 53 53 53 52 51 51 50 48 47 46 44 43 45 39 37 38 38 39 40 41 45 48 50 51 54 53 51 49 46 42 41 42
52 51 51 51 51 51 51 51 52 52 52 52 51 51 49 48 47 46 45 46 46 45 43 40 36 36 37 37 39 39 40 45 47 48 49 52 51 49 48 44 41 40

ECMWFNIL_sfc_dewp_078.txt.gz
Dewpoint
62 62 61 61 62 62 62 62 62 61 61 61 61 61 61 61 62 62 62 62 62 62 62 62 62 62 63 63 63 63 63 62 61 61 61 61 60 60 60 60 58 59
61 62 62 61 61 61 61 61 61 61 60 60 61 61 61 61 60 61 61 61 61 61 62 62 62 62 62 62 62 62 61 61 61 63 61 61 60 60 60 59 59 58
61 61 61 61 61 60 60 60 60 61 61 61 61 60 60 60 60 60 60 60 60 60 61 61 61 61 61 61 61 61 61 61 61 61 61 61 60 60 59 59 58 59
61 61 62 62 61 60 60 60 60 61 61 60 61 60 61 60 59 59 59 62 59 59 60 60 61 61 60 60 60 60 61 61 61 61 60 59 60 60 60 59 58 58
61 61 62 61 61 61 60 60 61 61 61 60 60 60 59 58 58 58 58 58 59 59 59 59 60 60 59 60 60 60 59 60 60 61 61 60 59 60 59 60 59 59
61 62 61 61 61 60 60 60 61 61 61 60 60 59 58 58 58 57 57 58 58 58 58 59 59 59 59 59 60 59 59 59 60 61 61 61 60 59 62 60 59 59
62 61 60 60 61 60 60 61 61 61 61 60 59 58 58 57 57 56 57 57 58 58 58 58 58 58 58 59 59 58 58 59 60 60 61 60 60 59 60 59 59 58
61 61 60 60 60 60 60 60 61 61 60 59 58 57 57 57 56 56 56 57 57 57 57 57 58 58 57 58 58 57 57 59 59 60 60 59 59 59 59 60 58 58
61 61 60 60 60 59 60 60 61 61 60 58 57 57 57 56 56 56 55 55 56 56 57 57 57 57 57 57 57 57 57 56 58 58 59 59 59 59 60 59 58 58
60 60 60 60 59 59 59 60 60 60 59 57 57 57 56 56 56 55 55 54 55 56 56 56 56 56 57 56 56 56 56 57 57 58 58 59 59 59 59 59 58 57
59 59 60 59 59 60 59 60 60 60 58 57 57 57 56 56 56 55 54 54 55 55 55 55 55 56 55 55 55 56 56 57 57 57 58 58 59 59 61 59 58 58
59 59 59 58 59 59 59 60 60 59 57 57 57 57 56 56 56 55 53 53 54 55 55 55 55 54 53 54 55 55 55 56 57 58 58 58 58 59 59 59 58 57
59 58 59 59 59 59 59 59 59 59 56 56 57 56 56 56 56 54 53 53 53 53 52 52 51 52 52 53 54 54 55 56 57 57 57 58 58 58 58 57 56 57
59 58 59 59 59 59 59 59 59 57 56 55 56 55 55 55 53 52 52 51 51 50 49 49 49 49 50 52 53 54 55 56 56 56 56 57 57 58 57 56 57 57
58 58 58 58 59 59 59 58 58 56 55 55 55 55 56 54 52 52 50 49 49 49 48 48 48 48 48 48 51 53 54 55 55 55 56 56 56 56 56 55 54 52
58 58 58 58 58 58 58 57 56 54 54 54 55 54 53 52 51 51 49 49 48 48 48 48 47 47 46 44 47 53 53 53 53 54 55 55 55 52 50 51 51 52
58 58 58 58 57 57 56 56 53 54 55 55 54 53 52 51 50 49 49 48 48 47 47 47 46 45 41 40 44 49 53 53 53 53 53 54 51 49 49 51 53 54
57 57 57 57 56 55 56 55 55 55 55 54 53 52 51 51 50 50 49 49 48 48 47 47 46 43 40 41 43 46 50 53 53 53 53 52 51 51 53 54 55 55
57 56 55 55 55 55 56 56 56 55 54 52 51 51 51 50 50 49 49 49 48 47 47 46 44 41 40 41 44 46 47 51 53 53 53 53 54 54 54 54 54 54
56 56 55 55 55 56 56 56 55 54 53 52 51 50 50 50 49 49 48 48 47 46 45 44 43 41 39 41 44 47 47 50 55 55 55 55 55 54 54 54 53 53
55 55 54 55 55 56 56 55 55 55 54 53 51 50 50 49 49 48 47 47 46 45 45 44 42 39 39 40 43 47 47 50 55 55 55 55 56 56 56 55 55 55
54 54 54 54 53 55 55 54 54 54 53 53 52 51 50 49 48 46 45 44 44 44 44 43 43 39 39 41 44 48 49 54 55 55 55 55 54 55 56 56 54 52
53 54 54 54 54 54 54 53 53 52 52 51 49 48 47 46 46 45 45 43 43 43 43 42 41 39 39 40 43 48 50 54 54 53 52 50 49 48 49 50 50 50
52 52 53 53 53 53 53 53 52 52 50 50 48 48 47 45 44 43 42 41 40 40 40 39 38 38 38 40 42 46 50 54 52 50 48 46 43 42 43 43 46 48
51 51 52 52 52 51 52 51 50 50 50 50 49 48 47 47 45 43 41 40 38 38 42 37 36 38 37 38 40 43 50 53 51 49 45 44 42 41 41 41 42 43
50 51 51 51 51 51 51 51 51 51 50 49 48 48 47 46 46 42 40 40 39 38 39 38 37 38 38 37 38 40 44 51 50 47 45 43 42 40 40 39 39 39

ECMWFNIL_sfc_dewp_081.txt.gz
Dewpoint
61 61 61 62 61 60 61 61 61 61 60 59 60 61 61 62 63 63 63 62 62 62 62 62 62 62 62 62 62 62 61 61 61 60 60 59 58 59 59 58 57 59
61 61 61 60 60 60 61 61 61 61 61 61 61 60 61 61 62 63 62 62 62 61 61 61 61 62 62 62 62 61 60 60 60 61 60 59 58 59 59 58 58 57
60 61 61 60 61 60 60 60 60 60 61 61 61 61 61 61 61 61 62 62 61 61 61 61 61 61 62 61 61 61 61 60 60 60 60 59 58 59 58 58 57 58
60 61 61 61 61 61 60 60 60 60 60 60 60 61 61 61 61 60 61 63 61 60 60 61 61 61 61 61 61 61 60 60 60 60 59 58 59 59 58 58 57 57
61 61 61 61 61 60 60 60 60 60 60 60 60 60 61 60 60 59 59 60 60 60 60 60 60 60 60 60 60 60 60 60 59 60 60 59 58 59 58 59 58 58
61 61 62 61 61 60 60 60 60 60 60 60 60 60 59 59 60 59 59 59 59 59 60 59 60 59 59 59 59 60 59 59 59 60 60 59 59 58 60 58 58 58
61 61 61 61 61 61 60 60 60 60 60 60 60 59 59 59 59 59 58 58 58 59 59 59 59 58 58 59 59 58 58 59 59 60 60 58 59 58 59 58 58 58
61 61 62 62 61 61 60 60 60 60 60 60 60 59 59 59 59 58 58 58 58 58 57 58 58 58 57 58 58 57 57 59 59 59 59 58 58 59 58 58 57 57
62 62 61 60 60 60 59 59 60 60 60 60 60 59 59 59 59 57 57 57 57 57 57 57 58 57 57 58 57 57 57 57 58 59 59 58 58 58 59 57 56 56
61 60 60 60 60 59 59 59 60 60 60 60 60 59 59 59 57 57 57 57 57 57 57 57 57 56 57 57 57 57 57 57 57 58 58 59 59 58 58 57 57 56
60 59 59 59 59 59 59 59 59 59 59 59 59 59 59 59 56 56 56 56 56 56 56 56 56 56 56 55 55 56 57 57 57 57 57 58 58 59 60 57 57 56
59 59 59 59 59 59 59 59 59 59 59 59 59 58 58 57 55 55 55 55 55 56 56 55 55 55 55 55 55 54 54 55 56 57 57 57 57 58 58 56 56 55
59 59 59 59 59 59 59 59 59 59 58 59 59 58 57 55 55 54 54 55 54 54 54 53 53 52 53 54 54 54 55 55 55 56 56 57 57 58 57 56 56 55
59 59 59 59 59 59 59 59 58 58 58 58 58 58 56 55 54 53 53 52 51 50 50 51 50 50 51 52 53 55 55 55 56 56 56 57 56 56 56 56 56 55
58 58 58 58 58 58 59 58 58 58 58 57 57 57 55 54 52 51 50 49 49 49 49 49 49 48 48 49 53 53 54 55 55 56 57 56 55 55 54 54 53 53
58 58 58 58 58 58 58 58 58 58 58 56 56 55 54 52 51 50 49 49 48 48 48 48 47 47 47 44 47 53 54 55 55 56 56 55 53 52 51 51 51 51
58 58 58 58 57 58 57 57 57 57 56 55 54 54 52 50 50 49 48 48 48 47 47 47 46 46 42 42 47 49 53 54 55 55 54 52 51 50 49 50 52 53
58 58 58 57 57 56 57 57 56 56 55 54 54 52 50 49 49 48 48 48 47 47 47 46 45 43 41 44 46 47 50 54 54 53 51 50 49 50 52 53 53 53
57 57 57 56 55 55 55 55 55 54 54 53 52 51 49 49 48 48 48 48 47 46 46 46 45 41 42 45 44 45 47 51 53 51 50 50 51 53 53 53 53 52
56 57 56 55 55 56 55 55 54 53 52 51 52 50 48 48 48 47 47 47 46 46 46 45 45 42 43 44 44 45 46 49 53 53 53 53 53 53 53 53 52 51
55 55 55 55 55 55 54 53 52 51 50 50 50 49 48 47 47 46 46 46 46 46 47 45 44 40 43 44 44 45 47 49 54 54 54 55 55 54 54 53 52 51
54 54 54 55 54 53 52 52 51 51 50 49 49 48 47 47 46 46 46 45 46 46 46 45 43 40 43 44 45 46 49 54 54 54 53 52 51 52 52 51 51 50
52 53 53 54 53 52 51 51 50 49 48 48 47 46 46 45 45 45 45 45 44 44 44 43 43 41 43 44 45 46 48 51 49 47 46 44 44 45 47 48 48 47
51 52 52 52 52 51 50 50 49 49 47 47 46 45 44 43 41 41 41 43 42 42 42 43 42 41 42 44 45 45 48 50 49 46 45 44 43 43 42 42 45 47
50 51 51 50 50 49 49 48 48 48 47 47 46 44 43 42 41 40 39 40 41 42 44 43 42 42 40 43 45 45 47 48 46 44 43 43 42 41 41 40 40 42
48 49 50 50 49 49 49 48 48 47 46 45 44 44 43 43 42 41 41 41 41 41 42 41 42 41 41 41 43 44 44 47 47 44 43 42 41 40 39 39 39 39

ECMWFNIL_sfc_dewp_084.txt.gz
Dewpoint
61 61 61 61 61 61 62 62 63 63 63 63 62 62 62 62 63 63 63 63 62 63 63 62 62 62 63 62 62 62 62 61 61 61 61 61 60 60 60 59 59 60
60 60 61 61 61 61 61 62 62 63 63 62 62 61 62 62 62 62 62 62 62 62 62 62 62 62 62 62 62 62 62 61 61 61 61 60 60 60 60 60 60 59
60 60 60 61 61 61 61 61 61 62 62 62 61 61 61 62 62 62 62 62 62 62 61 62 62 62 62 62 62 62 61 61 61 61 61 60 60 60 60 60 59 59
60 60 61 61 61 61 61 60 61 61 61 61 61 61 61 62 62 61 62 63 62 61 61 61 62 62 62 62 62 62 61 61 61 61 60 59 60 60 59 59 59 59
60 60 60 61 61 61 61 61 60 60 60 61 61 61 61 61 61 61 61 62 61 61 61 61 61 61 62 62 62 61 61 60 60 61 60 60 59 60 59 59 59 59
61 61 60 61 61 61 61 61 60 60 60 60 60 61 61 61 61 60 60 60 60 60 60 60 60 61 61 61 61 61 60 60 60 61 60 60 59 59 59 59 59 59
61 60 60 61 61 61 60 60 60 60 61 60 60 60 60 60 60 60 60 60 59 60 60 60 60 60 60 60 60 60 60 60 60 60 60 59 60 59 60 59 59 59
61 61 61 61 61 60 60 60 60 60 60 60 60 60 59 60 60 60 60 59 59 59 60 60 60 59 59 60 60 59 59 59 60 60 60 59 60 60 59 59 59 59
61 61 61 61 61 60 60 60 60 60 60 60 60 59 59 59 59 59 59 59 59 59 59 59 59 59 59 59 59 59 59 59 60 60 60 59 60 60 60 59 58 58
61 61 60 60 60 60 60 60 60 60 60 60 60 59 59 59 59 58 59 58 58 58 58 58 58 58 58 59 59 59 59 59 59 60 60 60 60 60 59 59 58 58
59 59 59 60 60 60 60 60 60 60 60 60 59 59 59 59 58 58 58 58 58 58 58 58 58 58 58 58 58 58 59 59 59 59 59 59 60 60 60 59 58 58
59 59 59 59 59 59 59 59 60 60 60 59 59 59 58 58 58 57 57 57 57 57 57 57 57 57 57 57 57 57 57 58 58 58 59 59 59 59 59 58 58 57
58 59 59 58 58 59 59 59 60 60 60 59 59 58 58 57 57 56 56 57 57 57 57 57 56 56 56 56 56 56 57 57 57 57 58 58 59 59 58 58 58 58
58 59 59 59 59 59 59 59 59 59 59 59 59 58 57 57 56 55 55 55 55 55 55 55 54 54 54 55 55 56 56 56 57 57 58 58 58 57 58 57 58 58
59 59 59 59 59 59 59 59 59 59 59 58 58 58 57 56 54 53 52 51 51 51 51 52 52 53 53 54 55 55 56 56 57 57 58 57 56 56 55 54 54 54
59 59 59 59 59 59 58 59 59 58 58 58 58 57 56 54 53 52 51 51 50 49 49 50 50 50 49 50 52 55 56 56 57 57 57 56 55 53 52 52 52 53
58 58 58 58 58 58 58 58 58 58 57 57 57 55 54 52 52 51 50 50 49 49 48 48 47 47 43 41 47 50 55 56 57 56 56 55 54 51 50 51 51 51
56 58 58 58 58 58 58 58 58 57 56 56 55 54 53 51 50 49 49 48 48 48 48 47 47 44 41 41 44 48 51 56 56 55 54 53 51 51 52 52 52 53
54 56 57 57 58 58 57 57 57 56 55 55 54 53 50 50 49 49 48 48 48 47 47 47 47 42 42 42 44 46 48 52 54 53 52 53 52 52 53 53 53 53
53 55 56 56 56 56 56 56 55 54 54 54 53 52 50 49 48 48 48 48 48 48 47 47 47 43 42 43 44 45 46 48 52 52 53 53 53 53 53 52 52 52
52 54 54 54 55 54 54 53 52 52 51 51 51 50 49 48 48 47 47 48 48 48 48 47 46 42 42 42 43 44 46 48 54 54 54 54 53 53 52 52 52 52
51 53 52 52 52 52 51 50 50 49 49 49 48 48 47 48 47 47 47 48 48 49 49 49 46 42 42 43 45 46 48 53 53 52 51 50 49 49 50 50 50 51
50 51 51 50 50 49 48 48 47 47 47 47 46 46 45 45 45 46 47 47 48 49 49 48 47 43 42 44 45 45 47 50 49 47 46 45 44 44 45 46 47 47
48 49 49 49 48 47 47 47 46 46 45 46 45 44 44 43 44 43 43 45 46 47 48 49 47 43 42 43 44 44 47 49 47 45 44 43 43 43 43 43 44 47
47 48 49 48 47 47 46 45 45 45 45 45 45 44 44 44 45 43 43 43 44 46 48 47 47 45 42 42 43 43 46 47 46 44 44 42 42 42 43 42 41 42
44 47 47 48 47 46 46 45 45 45 44 44 44 44 44 44 44 44 42 42 42 43 44 44 45 44 42 40 42 42 43 46 46 44 43 42 42 38 39 40 40 41